Time,TemperatureF,DewpointF,PressureIn,WindDirection,WindDirectionDegrees,WindSpeedMPH,WindSpeedGustMPH,Humidity,HourlyPrecipIn,Conditions,Clouds,dailyrainin,SoftwareType,DateUTC
2013-08-09 01:36:00,73.9,72.1,29.95,SSW,211,0.0,0.0,94,0.00,,,0.00,Wunderground v.1.15,2013-08-09 05:36:00,
2013-08-09 01:43:00,73.8,72.0,29.95,SW,222,0.0,0.0,94,0.00,,,0.00,Wunderground v.1.15,2013-08-09 05:43:00,
2013-08-09 01:48:00,73.8,72.0,29.95,SW,233,0.0,0.0,94,0.00,,,0.00,Wunderground v.1.15,2013-08-09 05:48:00,
2013-08-09 01:50:00,73.8,72.0,29.95,SW,233,0.0,0.0,94,0.00,,,0.00,Wunderground v.1.15,2013-08-09 05:50:00,
2013-08-09 01:51:00,73.7,71.9,29.95,SW,233,0.0,0.0,94,0.00,,,0.00,Wunderground v.1.15,2013-08-09 05:51:00,
2013-08-09 01:52:00,73.7,71.9,29.95,SW,233,0.0,0.0,94,0.00,,,0.00,Wunderground v.1.15,2013-08-09 05:52:00,
2013-08-09 01:53:00,73.7,71.9,29.95,SW,233,0.0,0.0,94,0.00,,,0.00,Wunderground v.1.15,2013-08-09 05:53:00,
2013-08-09 01:56:00,73.7,72.2,29.95,SW,233,0.0,0.0,95,0.00,,,0.00,Wunderground v.1.15,2013-08-09 05:56:00,
2013-08-09 01:57:00,73.6,72.1,29.95,SW,233,0.0,0.0,95,0.00,,,0.00,Wunderground v.1.15,2013-08-09 05:57:00,
2013-08-09 02:00:00,73.6,72.1,29.95,SW,233,0.0,0.0,95,0.00,,,0.00,Wunderground v.1.15,2013-08-09 06:00:00,
2013-08-09 02:04:00,73.5,72.0,29.95,SW,233,0.0,0.0,95,0.00,,,0.00,Wunderground v.1.15,2013-08-09 06:04:00,
2013-08-09 02:06:00,73.5,72.0,29.95,SW,233,0.0,0.0,95,0.00,,,0.00,Wunderground v.1.15,2013-08-09 06:06:00,
2013-08-09 02:07:00,73.6,72.1,29.95,SW,233,0.0,0.0,95,0.00,,,0.00,Wunderground v.1.15,2013-08-09 06:07:00,
2013-08-09 02:09:00,73.6,72.1,29.95,SW,233,0.0,0.0,95,0.00,,,0.00,Wunderground v.1.15,2013-08-09 06:09:00,
2013-08-09 02:14:00,73.5,72.0,29.95,SW,233,0.0,0.0,95,0.00,,,0.00,Wunderground v.1.15,2013-08-09 06:14:00,
2013-08-09 02:15:00,73.5,72.0,29.94,SW,233,0.0,0.0,95,0.00,,,0.00,Wunderground v.1.15,2013-08-09 06:15:00,
2013-08-09 02:16:00,73.5,72.0,29.94,SW,233,0.0,0.0,95,0.00,,,0.00,Wunderground v.1.15,2013-08-09 06:16:00,
2013-08-09 02:18:00,73.4,71.9,29.94,SW,233,0.0,0.0,95,0.00,,,0.00,Wunderground v.1.15,2013-08-09 06:18:00,
2013-08-09 02:19:00,73.4,71.9,29.94,SW,233,0.0,0.0,95,0.00,,,0.00,Wunderground v.1.15,2013-08-09 06:19:00,
2013-08-09 02:23:00,73.4,71.9,29.94,SW,233,0.0,0.0,95,0.00,,,0.00,Wunderground v.1.15,2013-08-09 06:23:00,
2013-08-09 02:25:00,73.4,71.9,29.94,SW,233,0.0,0.0,95,0.00,,,0.00,Wunderground v.1.15,2013-08-09 06:25:00,
2013-08-09 02:27:00,73.4,71.9,29.93,SW,233,0.0,0.0,95,0.00,,,0.00,Wunderground v.1.15,2013-08-09 06:27:00,
2013-08-09 02:29:00,73.4,71.9,29.93,SW,233,0.0,0.0,95,0.00,,,0.00,Wunderground v.1.15,2013-08-09 06:29:00,
2013-08-09 02:30:00,73.4,71.9,29.94,SW,233,0.0,0.0,95,0.00,,,0.00,Wunderground v.1.15,2013-08-09 06:30:00,
2013-08-09 02:33:00,73.3,71.8,29.94,SW,233,0.0,0.0,95,0.00,,,0.00,Wunderground v.1.15,2013-08-09 06:33:00,
2013-08-09 02:35:00,73.3,71.8,29.93,SW,233,0.0,0.0,95,0.00,,,0.00,Wunderground v.1.15,2013-08-09 06:35:00,
2013-08-09 02:37:00,73.3,71.8,29.93,SW,233,0.0,0.0,95,0.00,,,0.00,Wunderground v.1.15,2013-08-09 06:37:00,
2013-08-09 02:39:00,73.3,71.8,29.93,SW,233,0.0,0.0,95,0.00,,,0.00,Wunderground v.1.15,2013-08-09 06:39:00,
2013-08-09 02:41:00,73.2,71.7,29.94,SW,233,0.0,0.0,95,0.00,,,0.00,Wunderground v.1.15,2013-08-09 06:41:00,
2013-08-09 02:43:00,73.2,71.7,29.94,SW,233,0.0,0.0,95,0.00,,,0.00,Wunderground v.1.15,2013-08-09 06:43:00,
2013-08-09 02:44:00,73.2,71.7,29.94,SW,233,0.0,0.0,95,0.00,,,0.00,Wunderground v.1.15,2013-08-09 06:44:00,
2013-08-09 02:46:00,73.2,71.7,29.94,SW,233,0.0,0.0,95,0.00,,,0.00,Wunderground v.1.15,2013-08-09 06:46:00,
2013-08-09 02:48:00,73.1,71.6,29.94,SW,233,0.0,0.0,95,0.00,,,0.00,Wunderground v.1.15,2013-08-09 06:48:00,
2013-08-09 02:49:00,73.1,71.6,29.94,SW,233,0.0,0.0,95,0.00,,,0.00,Wunderground v.1.15,2013-08-09 06:49:00,
2013-08-09 02:50:00,73.1,71.6,29.94,SW,233,0.0,0.0,95,0.00,,,0.00,Wunderground v.1.15,2013-08-09 06:50:00,
2013-08-09 02:52:00,73.1,71.6,29.94,SW,233,0.0,0.0,95,0.00,,,0.00,Wunderground v.1.15,2013-08-09 06:52:00,
2013-08-09 02:53:00,73.0,71.5,29.94,SW,233,0.0,0.0,95,0.00,,,0.00,Wunderground v.1.15,2013-08-09 06:53:00,
2013-08-09 02:54:00,73.0,71.5,29.95,WSW,240,0.0,1.0,95,0.00,,,0.00,Wunderground v.1.15,2013-08-09 06:54:00,
2013-08-09 02:56:00,73.0,71.5,29.94,West,259,0.0,1.0,95,0.00,,,0.00,Wunderground v.1.15,2013-08-09 06:56:00,
2013-08-09 02:57:00,73.0,71.5,29.95,West,259,0.0,0.0,95,0.00,,,0.00,Wunderground v.1.15,2013-08-09 06:57:00,
2013-08-09 02:59:00,73.0,71.5,29.94,West,259,0.0,0.0,95,0.00,,,0.00,Wunderground v.1.15,2013-08-09 06:59:00,
2013-08-09 03:03:00,73.0,71.5,29.95,West,259,0.0,0.0,95,0.00,,,0.00,Wunderground v.1.15,2013-08-09 07:03:00,
2013-08-09 03:05:00,72.9,71.4,29.95,West,259,0.0,0.0,95,0.00,,,0.00,Wunderground v.1.15,2013-08-09 07:05:00,
2013-08-09 03:06:00,72.9,71.4,29.95,West,259,0.0,0.0,95,0.00,,,0.00,Wunderground v.1.15,2013-08-09 07:06:00,
2013-08-09 03:08:00,73.0,71.5,29.94,West,259,0.0,0.0,95,0.00,,,0.00,Wunderground v.1.15,2013-08-09 07:08:00,
2013-08-09 03:11:00,73.0,71.8,29.95,West,259,0.0,0.0,96,0.00,,,0.00,Wunderground v.1.15,2013-08-09 07:11:00,
2013-08-09 03:13:00,73.0,71.8,29.95,West,259,0.0,0.0,96,0.00,,,0.00,Wunderground v.1.15,2013-08-09 07:13:00,
2013-08-09 03:18:00,73.1,71.9,29.95,SW,218,0.0,0.0,96,0.00,,,0.00,Wunderground v.1.15,2013-08-09 07:18:00,
2013-08-09 03:21:00,73.1,71.9,29.95,SW,220,0.0,0.0,96,0.00,,,0.00,Wunderground v.1.15,2013-08-09 07:21:00,
2013-08-09 03:23:00,73.1,71.9,29.95,SW,220,0.0,0.0,96,0.00,,,0.00,Wunderground v.1.15,2013-08-09 07:23:00,
2013-08-09 03:25:00,73.1,71.9,29.95,SW,215,0.0,3.0,96,0.00,,,0.00,Wunderground v.1.15,2013-08-09 07:25:00,
2013-08-09 03:28:00,73.1,71.9,29.95,SW,215,0.0,0.0,96,0.00,,,0.00,Wunderground v.1.15,2013-08-09 07:28:00,
2013-08-09 03:30:00,73.1,71.9,29.95,SW,215,0.0,0.0,96,0.00,,,0.00,Wunderground v.1.15,2013-08-09 07:30:00,
2013-08-09 03:31:00,73.2,72.0,29.95,South,174,0.0,1.0,96,0.00,,,0.00,Wunderground v.1.15,2013-08-09 07:31:00,
2013-08-09 03:32:00,73.1,71.9,29.95,South,174,0.0,1.0,96,0.00,,,0.00,Wunderground v.1.15,2013-08-09 07:32:00,
2013-08-09 03:34:00,73.1,71.9,29.95,SSW,205,0.0,1.0,96,0.00,,,0.00,Wunderground v.1.15,2013-08-09 07:34:00,
2013-08-09 03:38:00,73.1,71.9,29.95,SW,215,0.0,0.0,96,0.00,,,0.00,Wunderground v.1.15,2013-08-09 07:38:00,
2013-08-09 03:39:00,73.1,71.9,29.95,South,169,0.0,0.0,96,0.00,,,0.00,Wunderground v.1.15,2013-08-09 07:39:00,
2013-08-09 03:42:00,73.1,71.9,29.95,SW,226,0.0,0.0,96,0.00,,,0.00,Wunderground v.1.15,2013-08-09 07:42:00,
2013-08-09 03:43:00,73.1,71.9,29.95,SW,226,0.0,0.0,96,0.00,,,0.00,Wunderground v.1.15,2013-08-09 07:43:00,
2013-08-09 03:45:00,73.1,71.9,29.95,SW,227,0.0,1.0,96,0.00,,,0.00,Wunderground v.1.15,2013-08-09 07:45:00,
2013-08-09 03:49:00,73.2,72.0,29.95,West,262,0.0,0.0,96,0.00,,,0.00,Wunderground v.1.15,2013-08-09 07:49:00,
2013-08-09 03:51:00,73.2,72.0,29.95,West,261,0.0,0.0,96,0.00,,,0.00,Wunderground v.1.15,2013-08-09 07:51:00,
2013-08-09 03:55:00,73.3,72.1,29.95,SW,229,0.0,0.0,96,0.00,,,0.00,Wunderground v.1.15,2013-08-09 07:55:00,
2013-08-09 03:56:00,73.3,72.1,29.95,SW,230,0.0,0.0,96,0.00,,,0.00,Wunderground v.1.15,2013-08-09 07:56:00,
2013-08-09 03:59:00,73.3,72.1,29.95,SSE,157,0.0,0.0,96,0.00,,,0.00,Wunderground v.1.15,2013-08-09 07:59:00,
2013-08-09 04:01:00,73.4,72.2,29.95,SSW,196,0.0,1.0,96,0.00,,,0.00,Wunderground v.1.15,2013-08-09 08:01:00,
2013-08-09 04:03:00,73.5,72.3,29.95,SSW,197,0.0,1.0,96,0.00,,,0.00,Wunderground v.1.15,2013-08-09 08:03:00,
2013-08-09 04:04:00,73.5,72.3,29.95,SW,227,0.0,2.0,96,0.00,,,0.00,Wunderground v.1.15,2013-08-09 08:04:00,
2013-08-09 04:08:00,73.5,72.3,29.95,West,276,0.0,1.0,96,0.00,,,0.00,Wunderground v.1.15,2013-08-09 08:08:00,
2013-08-09 04:13:00,73.5,72.3,29.95,South,185,1.0,2.0,96,0.00,,,0.00,Wunderground v.1.15,2013-08-09 08:13:00,
2013-08-09 04:14:00,73.5,72.3,29.95,South,185,0.0,2.0,96,0.00,,,0.00,Wunderground v.1.15,2013-08-09 08:14:00,
2013-08-09 04:18:00,73.5,72.3,29.95,SSW,205,0.0,0.0,96,0.00,,,0.00,Wunderground v.1.15,2013-08-09 08:18:00,
2013-08-09 04:19:00,73.5,72.3,29.95,SSE,162,0.0,0.0,96,0.00,,,0.00,Wunderground v.1.15,2013-08-09 08:19:00,
2013-08-09 04:22:00,73.5,72.3,29.95,WNW,291,0.0,0.0,96,0.00,,,0.00,Wunderground v.1.15,2013-08-09 08:22:00,
2013-08-09 04:23:00,73.4,72.2,29.95,South,173,0.0,0.0,96,0.00,,,0.00,Wunderground v.1.15,2013-08-09 08:23:00,
2013-08-09 04:25:00,73.4,72.2,29.94,South,173,0.0,1.0,96,0.00,,,0.00,Wunderground v.1.15,2013-08-09 08:25:00,
2013-08-09 04:28:00,73.4,72.2,29.95,SW,215,0.0,0.0,96,0.00,,,0.00,Wunderground v.1.15,2013-08-09 08:28:00,
2013-08-09 04:29:00,73.4,72.2,29.95,SSW,193,0.0,0.0,96,0.00,,,0.00,Wunderground v.1.15,2013-08-09 08:29:00,
2013-08-09 04:32:00,73.4,72.2,29.95,South,178,0.0,2.0,96,0.00,,,0.00,Wunderground v.1.15,2013-08-09 08:32:00,
2013-08-09 04:33:00,73.4,72.2,29.95,SSW,202,0.0,2.0,96,0.00,,,0.00,Wunderground v.1.15,2013-08-09 08:33:00,
2013-08-09 04:35:00,73.4,72.2,29.95,West,274,0.0,2.0,96,0.00,,,0.00,Wunderground v.1.15,2013-08-09 08:35:00,
2013-08-09 04:38:00,73.4,72.2,29.95,SW,227,1.0,1.0,96,0.00,,,0.00,Wunderground v.1.15,2013-08-09 08:38:00,
2013-08-09 04:40:00,73.4,72.2,29.95,SSW,195,1.0,1.0,96,0.00,,,0.00,Wunderground v.1.15,2013-08-09 08:40:00,
2013-08-09 04:41:00,73.3,72.1,29.95,South,173,1.0,1.0,96,0.00,,,0.00,Wunderground v.1.15,2013-08-09 08:41:00,
2013-08-09 04:44:00,73.3,72.1,29.94,South,181,1.0,3.0,96,0.00,,,0.00,Wunderground v.1.15,2013-08-09 08:44:00,
2013-08-09 04:45:00,73.3,72.1,29.95,WSW,247,1.0,3.0,96,0.00,,,0.00,Wunderground v.1.15,2013-08-09 08:45:00,
2013-08-09 04:46:00,73.3,72.1,29.95,South,188,1.0,3.0,96,0.00,,,0.00,Wunderground v.1.15,2013-08-09 08:46:00,
2013-08-09 04:48:00,73.3,72.1,29.95,South,188,1.0,1.0,96,0.00,,,0.00,Wunderground v.1.15,2013-08-09 08:48:00,
2013-08-09 04:50:00,73.3,72.1,29.95,South,190,1.0,1.0,96,0.00,,,0.00,Wunderground v.1.15,2013-08-09 08:50:00,
2013-08-09 04:52:00,73.4,72.2,29.95,WSW,254,0.0,1.0,96,0.00,,,0.00,Wunderground v.1.15,2013-08-09 08:52:00,
2013-08-09 04:53:00,73.4,72.2,29.94,WSW,254,0.0,1.0,96,0.00,,,0.00,Wunderground v.1.15,2013-08-09 08:53:00,
2013-08-09 04:55:00,73.4,72.2,29.95,WSW,251,0.0,1.0,96,0.00,,,0.00,Wunderground v.1.15,2013-08-09 08:55:00,
2013-08-09 04:57:00,73.4,72.2,29.94,South,188,0.0,1.0,96,0.00,,,0.00,Wunderground v.1.15,2013-08-09 08:57:00,
2013-08-09 05:01:00,73.4,72.2,29.94,WSW,243,0.0,1.0,96,0.00,,,0.00,Wunderground v.1.15,2013-08-09 09:01:00,
2013-08-09 05:02:00,73.4,72.2,29.94,WSW,243,0.0,1.0,96,0.00,,,0.00,Wunderground v.1.15,2013-08-09 09:02:00,
2013-08-09 05:03:00,73.4,72.2,29.94,SW,235,0.0,3.0,96,0.00,,,0.00,Wunderground v.1.15,2013-08-09 09:03:00,
2013-08-09 05:04:00,73.4,72.2,29.94,SW,236,0.0,3.0,96,0.00,,,0.00,Wunderground v.1.15,2013-08-09 09:04:00,
2013-08-09 05:08:00,73.4,72.2,29.94,WSW,238,1.0,1.0,96,0.00,,,0.00,Wunderground v.1.15,2013-08-09 09:08:00,
2013-08-09 05:09:00,73.4,72.2,29.94,WSW,238,0.0,1.0,96,0.00,,,0.00,Wunderground v.1.15,2013-08-09 09:09:00,
2013-08-09 05:12:00,73.5,72.3,29.94,West,275,0.0,1.0,96,0.00,,,0.00,Wunderground v.1.15,2013-08-09 09:12:00,
2013-08-09 05:13:00,73.5,72.3,29.94,West,275,0.0,1.0,96,0.00,,,0.00,Wunderground v.1.15,2013-08-09 09:13:00,
2013-08-09 05:15:00,73.5,72.3,29.94,West,275,0.0,1.0,96,0.00,,,0.00,Wunderground v.1.15,2013-08-09 09:15:00,
2013-08-09 05:18:00,73.4,72.2,29.94,West,275,0.0,0.0,96,0.00,,,0.00,Wunderground v.1.15,2013-08-09 09:18:00,
2013-08-09 05:20:00,73.4,72.2,29.94,West,275,0.0,0.0,96,0.00,,,0.00,Wunderground v.1.15,2013-08-09 09:20:00,
2013-08-09 05:21:00,73.4,72.2,29.94,WSW,253,0.0,0.0,96,0.00,,,0.00,Wunderground v.1.15,2013-08-09 09:21:00,
2013-08-09 05:24:00,73.4,72.2,29.95,SW,223,0.0,0.0,96,0.00,,,0.00,Wunderground v.1.15,2013-08-09 09:24:00,
2013-08-09 05:25:00,73.4,72.2,29.94,SW,223,0.0,0.0,96,0.00,,,0.00,Wunderground v.1.15,2013-08-09 09:25:00,
2013-08-09 05:27:00,73.3,72.1,29.94,SW,223,0.0,0.0,96,0.00,,,0.00,Wunderground v.1.15,2013-08-09 09:27:00,
2013-08-09 05:29:00,73.3,72.1,29.94,SW,223,0.0,1.0,96,0.00,,,0.00,Wunderground v.1.15,2013-08-09 09:29:00,
2013-08-09 05:30:00,73.3,72.1,29.94,SW,223,0.0,1.0,96,0.00,,,0.00,Wunderground v.1.15,2013-08-09 09:30:00,
2013-08-09 05:32:00,73.3,72.1,29.94,SW,223,0.0,1.0,96,0.00,,,0.00,Wunderground v.1.15,2013-08-09 09:32:00,
2013-08-09 05:35:00,73.2,72.0,29.94,SW,223,0.0,1.0,96,0.00,,,0.00,Wunderground v.1.15,2013-08-09 09:35:00,
2013-08-09 05:37:00,73.2,72.0,29.94,West,259,0.0,1.0,96,0.00,,,0.00,Wunderground v.1.15,2013-08-09 09:37:00,
2013-08-09 05:38:00,73.1,71.9,29.94,West,259,0.0,0.0,96,0.00,,,0.00,Wunderground v.1.15,2013-08-09 09:38:00,
2013-08-09 05:42:00,73.1,71.9,29.94,West,259,0.0,0.0,96,0.00,,,0.00,Wunderground v.1.15,2013-08-09 09:42:00,
2013-08-09 05:43:00,73.1,71.9,29.94,West,259,0.0,0.0,96,0.00,,,0.00,Wunderground v.1.15,2013-08-09 09:43:00,
2013-08-09 05:45:00,73.1,71.9,29.94,West,259,0.0,0.0,96,0.00,,,0.00,Wunderground v.1.15,2013-08-09 09:45:00,
2013-08-09 05:47:00,73.1,71.9,29.94,West,259,0.0,0.0,96,0.00,,,0.00,Wunderground v.1.15,2013-08-09 09:47:00,
2013-08-09 05:49:00,82.8,74.5,29.98,West,281,0.0,5.0,76,0.00,,,0.02,Wunderground v.1.15,2013-08-09 09:49:00,
2013-08-09 05:50:00,73.1,71.9,29.95,SSW,204,0.0,0.0,96,0.00,,,0.00,Wunderground v.1.15,2013-08-09 09:50:00,
2013-08-09 05:51:00,73.1,71.9,29.95,SSW,204,0.0,0.0,96,0.00,,,0.00,Wunderground v.1.15,2013-08-09 09:51:00,
2013-08-09 05:55:00,73.0,71.8,29.95,SSW,205,0.0,1.0,96,0.00,,,0.00,Wunderground v.1.15,2013-08-09 09:55:00,
2013-08-09 05:56:00,83.0,75.8,29.98,NE,46,0.0,2.0,79,0.00,,,0.02,Wunderground v.1.15,2013-08-09 09:56:00,
2013-08-09 05:57:00,73.0,71.8,29.95,SW,232,0.0,1.0,96,0.00,,,0.00,Wunderground v.1.15,2013-08-09 09:57:00,
2013-08-09 05:58:00,83.1,75.9,29.98,WNW,296,0.0,2.0,79,0.00,,,0.02,Wunderground v.1.15,2013-08-09 09:58:00,
2013-08-09 06:01:00,73.1,71.9,29.95,SW,232,0.0,0.0,96,0.00,,,0.00,Wunderground v.1.15,2013-08-09 10:01:00,
2013-08-09 06:02:00,73.1,71.9,29.95,SW,232,0.0,0.0,96,0.00,,,0.00,Wunderground v.1.15,2013-08-09 10:02:00,
2013-08-09 06:03:00,73.0,71.8,29.95,SW,232,0.0,0.0,96,0.00,,,0.00,Wunderground v.1.15,2013-08-09 10:03:00,
2013-08-09 06:04:00,73.0,71.8,29.95,SW,232,0.0,0.0,96,0.00,,,0.00,Wunderground v.1.15,2013-08-09 10:04:00,
2013-08-09 06:08:00,73.0,71.8,29.95,SW,235,0.0,0.0,96,0.00,,,0.00,Wunderground v.1.15,2013-08-09 10:08:00,
2013-08-09 06:09:00,82.9,75.3,29.98,North,355,1.0,5.0,78,0.00,,,0.02,Wunderground v.1.15,2013-08-09 10:09:00,
2013-08-09 06:10:00,73.0,71.8,29.95,SW,235,0.0,0.0,96,0.00,,,0.00,Wunderground v.1.15,2013-08-09 10:10:00,
2013-08-09 06:11:00,73.0,71.8,29.95,SW,235,0.0,0.0,96,0.00,,,0.00,Wunderground v.1.15,2013-08-09 10:11:00,
2013-08-09 06:12:00,73.0,71.8,29.95,SW,235,0.0,0.0,96,0.00,,,0.00,Wunderground v.1.15,2013-08-09 10:12:00,
2013-08-09 06:14:00,73.0,71.8,29.95,SW,235,0.0,0.0,96,0.00,,,0.00,Wunderground v.1.15,2013-08-09 10:14:00,
2013-08-09 06:16:00,73.0,71.8,29.95,SSW,194,0.0,0.0,96,0.00,,,0.00,Wunderground v.1.15,2013-08-09 10:16:00,
2013-08-09 06:17:00,73.0,71.8,29.95,SSW,199,0.0,1.0,96,0.00,,,0.00,Wunderground v.1.15,2013-08-09 10:17:00,
2013-08-09 06:19:00,73.0,71.8,29.95,SSW,199,0.0,0.0,96,0.00,,,0.00,Wunderground v.1.15,2013-08-09 10:19:00,
2013-08-09 06:20:00,81.5,75.1,29.97,SW,219,1.0,1.0,81,0.00,,,0.02,Wunderground v.1.15,2013-08-09 10:20:00,
2013-08-09 06:21:00,73.0,71.8,29.95,SSW,199,0.0,0.0,96,0.00,,,0.00,Wunderground v.1.15,2013-08-09 10:21:00,
2013-08-09 06:22:00,72.9,71.7,29.95,SSW,199,0.0,0.0,96,0.00,,,0.00,Wunderground v.1.15,2013-08-09 10:22:00,
2013-08-09 06:24:00,72.9,71.7,29.95,SW,216,0.0,0.0,96,0.00,,,0.00,Wunderground v.1.15,2013-08-09 10:24:00,
2013-08-09 06:26:00,72.9,71.7,29.95,SW,216,0.0,0.0,96,0.00,,,0.00,Wunderground v.1.15,2013-08-09 10:26:00,
2013-08-09 06:27:00,72.9,71.7,29.96,SW,216,0.0,0.0,96,0.00,,,0.00,Wunderground v.1.15,2013-08-09 10:27:00,
2013-08-09 06:28:00,80.9,74.9,29.98,WSW,254,0.0,2.0,82,0.00,,,0.02,Wunderground v.1.15,2013-08-09 10:28:00,
2013-08-09 06:30:00,72.9,71.7,29.96,SW,216,0.0,0.0,96,0.00,,,0.00,Wunderground v.1.15,2013-08-09 10:30:00,
2013-08-09 06:31:00,72.9,71.7,29.96,SW,216,0.0,1.0,96,0.00,,,0.00,Wunderground v.1.15,2013-08-09 10:31:00,
2013-08-09 06:33:00,72.9,71.7,29.96,SW,217,0.0,1.0,96,0.00,,,0.00,Wunderground v.1.15,2013-08-09 10:33:00,
2013-08-09 06:34:00,72.9,71.7,29.96,SW,217,0.0,1.0,96,0.00,,,0.00,Wunderground v.1.15,2013-08-09 10:34:00,
2013-08-09 06:38:00,72.9,71.7,29.96,WNW,300,0.0,0.0,96,0.00,,,0.00,Wunderground v.1.15,2013-08-09 10:38:00,
2013-08-09 06:40:00,72.9,71.7,29.97,WSW,258,0.0,0.0,96,0.00,,,0.00,Wunderground v.1.15,2013-08-09 10:40:00,
2013-08-09 06:41:00,72.9,71.7,29.97,WSW,258,0.0,0.0,96,0.00,,,0.00,Wunderground v.1.15,2013-08-09 10:41:00,
2013-08-09 06:42:00,72.9,71.7,29.97,WSW,258,0.0,0.0,96,0.00,,,0.00,Wunderground v.1.15,2013-08-09 10:42:00,
2013-08-09 06:44:00,72.9,71.7,29.97,WSW,258,0.0,0.0,96,0.00,,,0.00,Wunderground v.1.15,2013-08-09 10:44:00,
2013-08-09 06:46:00,72.9,71.7,29.97,WSW,244,0.0,0.0,96,0.00,,,0.00,Wunderground v.1.15,2013-08-09 10:46:00,
2013-08-09 06:47:00,72.9,71.7,29.97,SSW,209,0.0,1.0,96,0.00,,,0.00,Wunderground v.1.15,2013-08-09 10:47:00,
2013-08-09 06:48:00,79.4,75.2,29.98,West,278,0.0,1.0,87,0.00,,,0.02,Wunderground v.1.15,2013-08-09 10:48:00,
2013-08-09 06:51:00,73.0,71.8,29.98,SSW,209,0.0,1.0,96,0.00,,,0.00,Wunderground v.1.15,2013-08-09 10:51:00,
2013-08-09 06:52:00,73.0,71.8,29.98,SSW,209,0.0,1.0,96,0.00,,,0.00,Wunderground v.1.15,2013-08-09 10:52:00,
2013-08-09 06:55:00,73.0,71.8,29.98,SSW,209,0.0,1.0,96,0.00,,,0.00,Wunderground v.1.15,2013-08-09 10:55:00,
2013-08-09 06:56:00,79.1,75.2,29.99,WNW,286,0.0,0.0,88,0.00,,,0.03,Wunderground v.1.15,2013-08-09 10:56:00,
2013-08-09 06:58:00,73.0,71.8,29.98,SSW,209,0.0,0.0,96,0.00,,,0.00,Wunderground v.1.15,2013-08-09 10:58:00,
2013-08-09 06:59:00,73.0,71.8,29.98,SW,217,0.0,1.0,96,0.00,,,0.00,Wunderground v.1.15,2013-08-09 10:59:00,
2013-08-09 07:00:00,73.0,71.8,29.98,SW,217,0.0,1.0,96,0.00,,,0.00,Wunderground v.1.15,2013-08-09 11:00:00,
2013-08-09 07:01:00,73.0,71.8,29.98,SW,223,0.0,1.0,96,0.00,,,0.00,Wunderground v.1.15,2013-08-09 11:01:00,
2013-08-09 07:03:00,73.0,71.8,29.99,SSE,157,0.0,1.0,96,0.00,,,0.00,Wunderground v.1.15,2013-08-09 11:03:00,
2013-08-09 07:04:00,73.0,71.8,29.99,South,182,0.0,1.0,96,0.00,,,0.00,Wunderground v.1.15,2013-08-09 11:04:00,
2013-08-09 07:05:00,78.8,75.3,29.99,West,273,0.0,1.0,89,0.00,,,0.03,Wunderground v.1.15,2013-08-09 11:05:00,
2013-08-09 07:06:00,73.0,71.8,29.99,WSW,250,0.0,2.0,96,0.00,,,0.00,Wunderground v.1.15,2013-08-09 11:06:00,
2013-08-09 07:07:00,78.8,75.3,29.99,SSW,211,0.0,1.0,89,0.00,,,0.03,Wunderground v.1.15,2013-08-09 11:07:00,
2013-08-09 07:08:00,73.0,71.8,29.99,SSW,202,1.0,1.0,96,0.00,,,0.00,Wunderground v.1.15,2013-08-09 11:08:00,
2013-08-09 07:09:00,78.8,75.3,29.99,SSW,211,0.0,1.0,89,0.00,,,0.03,Wunderground v.1.15,2013-08-09 11:09:00,
2013-08-09 07:10:00,73.0,71.8,29.99,WSW,252,1.0,1.0,96,0.00,,,0.00,Wunderground v.1.15,2013-08-09 11:10:00,
2013-08-09 07:13:00,73.1,71.9,29.99,SSW,211,1.0,1.0,96,0.00,,,0.00,Wunderground v.1.15,2013-08-09 11:13:00,
2013-08-09 07:14:00,73.1,71.9,29.99,SW,223,1.0,2.0,96,0.00,,,0.00,Wunderground v.1.15,2013-08-09 11:14:00,
2013-08-09 07:16:00,73.1,71.9,29.99,SSE,165,0.0,2.0,96,0.00,,,0.00,Wunderground v.1.15,2013-08-09 11:16:00,
2013-08-09 07:18:00,73.1,71.9,29.99,SSE,165,0.0,0.0,96,0.00,,,0.00,Wunderground v.1.15,2013-08-09 11:18:00,
2013-08-09 07:19:00,73.1,71.9,29.99,WSW,249,0.0,0.0,96,0.00,,,0.00,Wunderground v.1.15,2013-08-09 11:19:00,
2013-08-09 07:21:00,73.1,71.9,29.99,SW,232,0.0,0.0,96,0.00,,,0.00,Wunderground v.1.15,2013-08-09 11:21:00,
2013-08-09 07:23:00,73.1,71.9,29.99,SSW,194,0.0,1.0,96,0.00,,,0.00,Wunderground v.1.15,2013-08-09 11:23:00,
2013-08-09 07:26:00,73.1,71.9,29.99,SSW,194,0.0,2.0,96,0.00,,,0.00,Wunderground v.1.15,2013-08-09 11:26:00,
2013-08-09 07:27:00,73.1,71.9,29.99,SSW,194,0.0,2.0,96,0.00,,,0.00,Wunderground v.1.15,2013-08-09 11:27:00,
2013-08-09 07:28:00,73.1,71.9,29.99,South,171,0.0,2.0,96,0.00,,,0.00,Wunderground v.1.15,2013-08-09 11:28:00,
2013-08-09 07:30:00,73.1,71.9,29.99,South,189,0.0,2.0,96,0.00,,,0.00,Wunderground v.1.15,2013-08-09 11:30:00,
2013-08-09 07:31:00,73.1,71.9,29.99,South,189,0.0,2.0,96,0.00,,,0.00,Wunderground v.1.15,2013-08-09 11:31:00,
2013-08-09 07:33:00,73.1,71.9,29.99,WSW,250,0.0,3.0,96,0.00,,,0.00,Wunderground v.1.15,2013-08-09 11:33:00,
2013-08-09 07:37:00,73.1,71.9,29.99,South,182,0.0,3.0,96,0.00,,,0.00,Wunderground v.1.15,2013-08-09 11:37:00,
2013-08-09 07:38:00,73.1,71.9,29.99,WSW,238,0.0,1.0,96,0.00,,,0.00,Wunderground v.1.15,2013-08-09 11:38:00,
2013-08-09 07:40:00,73.1,71.9,29.99,SSW,209,1.0,1.0,96,0.00,,,0.00,Wunderground v.1.15,2013-08-09 11:40:00,
2013-08-09 07:43:00,73.2,72.0,29.99,SSW,209,1.0,1.0,96,0.00,,,0.00,Wunderground v.1.15,2013-08-09 11:43:00,
2013-08-09 07:44:00,73.1,71.9,29.99,SSW,209,0.0,1.0,96,0.00,,,0.00,Wunderground v.1.15,2013-08-09 11:44:00,
2013-08-09 07:46:00,73.2,72.0,29.99,SSW,209,0.0,1.0,96,0.00,,,0.00,Wunderground v.1.15,2013-08-09 11:46:00,
2013-08-09 07:47:00,73.2,72.0,29.99,SSW,209,0.0,1.0,96,0.00,,,0.00,Wunderground v.1.15,2013-08-09 11:47:00,
2013-08-09 07:50:00,73.2,72.0,29.98,SW,215,0.0,0.0,96,0.00,,,0.00,Wunderground v.1.15,2013-08-09 11:50:00,
2013-08-09 07:52:00,73.2,72.0,29.98,SW,215,0.0,0.0,96,0.00,,,0.00,Wunderground v.1.15,2013-08-09 11:52:00,
2013-08-09 07:57:00,73.2,72.0,29.98,SW,214,0.0,0.0,96,0.00,,,0.00,Wunderground v.1.15,2013-08-09 11:57:00,
2013-08-09 07:58:00,73.2,72.0,29.98,SW,214,0.0,0.0,96,0.00,,,0.00,Wunderground v.1.15,2013-08-09 11:58:00,
2013-08-09 07:59:00,73.3,72.1,29.98,SW,214,0.0,0.0,96,0.00,,,0.00,Wunderground v.1.15,2013-08-09 11:59:00,
2013-08-09 08:00:00,73.3,72.1,29.98,SW,214,0.0,0.0,96,0.00,,,0.00,Wunderground v.1.15,2013-08-09 12:00:00,
2013-08-09 08:02:00,73.3,72.1,29.98,SW,214,0.0,0.0,96,0.00,,,0.00,Wunderground v.1.15,2013-08-09 12:02:00,
2013-08-09 08:04:00,73.3,72.1,29.98,SW,214,0.0,0.0,96,0.00,,,0.00,Wunderground v.1.15,2013-08-09 12:04:00,
2013-08-09 08:06:00,73.3,72.1,29.98,SW,214,0.0,0.0,96,0.00,,,0.00,Wunderground v.1.15,2013-08-09 12:06:00,
2013-08-09 08:07:00,73.3,72.1,29.98,SW,214,0.0,0.0,96,0.00,,,0.00,Wunderground v.1.15,2013-08-09 12:07:00,
2013-08-09 08:10:00,73.4,72.2,29.98,SW,214,0.0,0.0,96,0.00,,,0.00,Wunderground v.1.15,2013-08-09 12:10:00,
2013-08-09 08:12:00,73.4,72.2,29.98,SW,214,0.0,0.0,96,0.00,,,0.00,Wunderground v.1.15,2013-08-09 12:12:00,
2013-08-09 08:17:00,73.4,72.2,29.98,SW,214,0.0,0.0,96,0.00,,,0.00,Wunderground v.1.15,2013-08-09 12:17:00,
2013-08-09 08:19:00,73.4,72.2,29.98,SW,214,0.0,0.0,96,0.00,,,0.00,Wunderground v.1.15,2013-08-09 12:19:00,
2013-08-09 08:22:00,73.4,72.2,29.98,SW,214,0.0,0.0,96,0.00,,,0.00,Wunderground v.1.15,2013-08-09 12:22:00,
2013-08-09 08:24:00,73.5,72.3,29.98,SW,214,0.0,0.0,96,0.00,,,0.00,Wunderground v.1.15,2013-08-09 12:24:00,
2013-08-09 08:25:00,73.5,72.3,29.97,SW,214,0.0,0.0,96,0.00,,,0.00,Wunderground v.1.15,2013-08-09 12:25:00,
2013-08-09 08:26:00,73.5,72.3,29.97,SW,214,0.0,0.0,96,0.00,,,0.00,Wunderground v.1.15,2013-08-09 12:26:00,
2013-08-09 08:29:00,73.5,72.3,29.97,SW,214,0.0,0.0,96,0.00,,,0.01,Wunderground v.1.15,2013-08-09 12:29:00,
2013-08-09 08:31:00,73.6,72.4,29.97,SW,214,0.0,0.0,96,0.00,,,0.01,Wunderground v.1.15,2013-08-09 12:31:00,
2013-08-09 08:32:00,73.6,72.4,29.97,SW,214,0.0,0.0,96,0.00,,,0.01,Wunderground v.1.15,2013-08-09 12:32:00,
2013-08-09 08:36:00,73.6,72.4,29.97,SW,214,0.0,0.0,96,0.00,,,0.01,Wunderground v.1.15,2013-08-09 12:36:00,
2013-08-09 08:37:00,73.6,72.4,29.97,SW,214,0.0,0.0,96,0.00,,,0.01,Wunderground v.1.15,2013-08-09 12:37:00,
2013-08-09 08:38:00,73.7,72.5,29.97,SW,214,0.0,0.0,96,0.00,,,0.01,Wunderground v.1.15,2013-08-09 12:38:00,
2013-08-09 08:39:00,73.7,72.5,29.97,SW,214,0.0,0.0,96,0.00,,,0.01,Wunderground v.1.15,2013-08-09 12:39:00,
2013-08-09 08:43:00,73.7,72.5,29.97,SW,214,0.0,0.0,96,0.05,,,0.02,Wunderground v.1.15,2013-08-09 12:43:00,
2013-08-09 08:45:00,73.7,72.5,29.97,SW,214,0.0,0.0,96,0.05,,,0.02,Wunderground v.1.15,2013-08-09 12:45:00,
2013-08-09 08:48:00,73.7,72.5,29.97,SW,214,0.0,0.0,96,0.05,,,0.02,Wunderground v.1.15,2013-08-09 12:48:00,
2013-08-09 08:49:00,73.7,72.5,29.97,SW,214,0.0,0.0,96,0.05,,,0.02,Wunderground v.1.15,2013-08-09 12:49:00,
2013-08-09 08:50:00,73.7,72.5,29.98,SW,214,0.0,0.0,96,0.05,,,0.02,Wunderground v.1.15,2013-08-09 12:50:00,
2013-08-09 08:52:00,73.8,72.6,29.98,SW,214,0.0,0.0,96,0.05,,,0.02,Wunderground v.1.15,2013-08-09 12:52:00,
2013-08-09 08:53:00,73.8,72.6,29.98,SW,214,0.0,0.0,96,0.05,,,0.02,Wunderground v.1.15,2013-08-09 12:53:00,
2013-08-09 08:55:00,73.8,72.9,29.98,SSW,213,0.0,0.0,97,0.04,,,0.02,Wunderground v.1.15,2013-08-09 12:55:00,
2013-08-09 08:58:00,73.9,73.0,29.98,SSW,213,0.0,0.0,97,0.00,,,0.02,Wunderground v.1.15,2013-08-09 12:58:00,
2013-08-09 09:00:00,73.9,73.0,29.97,SSW,213,0.0,0.0,97,0.00,,,0.02,Wunderground v.1.15,2013-08-09 13:00:00,
2013-08-09 09:01:00,73.9,72.7,29.97,SSW,213,0.0,0.0,96,0.00,,,0.02,Wunderground v.1.15,2013-08-09 13:01:00,
2013-08-09 09:03:00,73.9,72.7,29.97,SSW,213,0.0,0.0,96,0.00,,,0.02,Wunderground v.1.15,2013-08-09 13:03:00,
2013-08-09 09:04:00,73.9,72.7,29.97,SSW,213,0.0,0.0,96,0.00,,,0.02,Wunderground v.1.15,2013-08-09 13:04:00,
2013-08-09 09:06:00,74.0,72.8,29.98,SSW,213,0.0,0.0,96,0.00,,,0.02,Wunderground v.1.15,2013-08-09 13:06:00,
2013-08-09 09:09:00,74.1,72.9,29.98,SSW,213,0.0,0.0,96,0.00,,,0.02,Wunderground v.1.15,2013-08-09 13:09:00,
2013-08-09 09:10:00,74.1,72.9,29.98,SSW,213,0.0,0.0,96,0.00,,,0.02,Wunderground v.1.15,2013-08-09 13:10:00,
2013-08-09 09:15:00,74.4,73.5,29.98,SSW,213,0.0,0.0,97,0.00,,,0.02,Wunderground v.1.15,2013-08-09 13:15:00,
2013-08-09 09:16:00,74.4,73.5,29.98,SSW,213,0.0,0.0,97,0.00,,,0.02,Wunderground v.1.15,2013-08-09 13:16:00,
2013-08-09 09:20:00,74.5,73.6,29.99,SSW,213,0.0,1.0,97,0.00,,,0.02,Wunderground v.1.15,2013-08-09 13:20:00,
2013-08-09 09:21:00,74.5,73.6,29.99,SSW,213,0.0,1.0,97,0.00,,,0.02,Wunderground v.1.15,2013-08-09 13:21:00,
2013-08-09 09:25:00,74.5,73.6,29.99,SSE,168,0.0,2.0,97,0.00,,,0.02,Wunderground v.1.15,2013-08-09 13:25:00,
2013-08-09 09:26:00,74.5,73.6,29.99,SSE,168,0.0,2.0,97,0.00,,,0.02,Wunderground v.1.15,2013-08-09 13:26:00,
2013-08-09 09:27:00,74.5,73.6,29.99,SSE,168,0.0,2.0,97,0.00,,,0.02,Wunderground v.1.15,2013-08-09 13:27:00,
2013-08-09 09:31:00,74.6,73.7,29.99,SSE,168,0.0,0.0,97,0.00,,,0.02,Wunderground v.1.15,2013-08-09 13:31:00,
2013-08-09 09:32:00,74.6,73.7,29.99,SSE,168,0.0,0.0,97,0.00,,,0.02,Wunderground v.1.15,2013-08-09 13:32:00,
2013-08-09 09:34:00,74.5,73.6,29.99,SSE,168,0.0,0.0,97,0.00,,,0.02,Wunderground v.1.15,2013-08-09 13:34:00,
2013-08-09 09:37:00,74.4,73.2,29.99,SW,234,0.0,1.0,96,0.00,,,0.02,Wunderground v.1.15,2013-08-09 13:37:00,
2013-08-09 09:38:00,74.4,73.2,29.99,WSW,252,0.0,0.0,96,0.00,,,0.02,Wunderground v.1.15,2013-08-09 13:38:00,
2013-08-09 09:39:00,74.4,73.2,29.99,SSE,159,0.0,4.0,96,0.00,,,0.02,Wunderground v.1.15,2013-08-09 13:39:00,
2013-08-09 09:43:00,74.4,73.2,29.99,SW,234,1.0,4.0,96,0.00,,,0.02,Wunderground v.1.15,2013-08-09 13:43:00,
2013-08-09 09:44:00,74.4,73.2,29.99,SSW,207,1.0,4.0,96,0.00,,,0.02,Wunderground v.1.15,2013-08-09 13:44:00,
2013-08-09 09:49:00,74.3,73.1,30.00,SSW,200,1.0,1.0,96,0.00,,,0.02,Wunderground v.1.15,2013-08-09 13:49:00,
2013-08-09 09:51:00,74.4,73.2,29.99,SSW,199,1.0,1.0,96,0.00,,,0.02,Wunderground v.1.15,2013-08-09 13:51:00,
2013-08-09 09:53:00,74.4,73.2,29.99,West,274,1.0,2.0,96,0.00,,,0.02,Wunderground v.1.15,2013-08-09 13:53:00,
2013-08-09 09:55:00,74.4,73.2,29.99,West,273,1.0,2.0,96,0.00,,,0.02,Wunderground v.1.15,2013-08-09 13:55:00,
2013-08-09 09:56:00,74.5,73.3,29.99,West,273,0.0,2.0,96,0.00,,,0.02,Wunderground v.1.15,2013-08-09 13:56:00,
2013-08-09 09:57:00,74.5,73.3,29.99,West,273,0.0,2.0,96,0.00,,,0.02,Wunderground v.1.15,2013-08-09 13:57:00,
2013-08-09 10:01:00,74.6,73.4,30.00,West,273,0.0,0.0,96,0.00,,,0.02,Wunderground v.1.15,2013-08-09 14:01:00,
2013-08-09 10:03:00,74.7,73.5,30.00,West,273,0.0,0.0,96,0.00,,,0.02,Wunderground v.1.15,2013-08-09 14:03:00,
2013-08-09 10:04:00,74.7,73.5,30.00,West,273,0.0,0.0,96,0.00,,,0.02,Wunderground v.1.15,2013-08-09 14:04:00,
2013-08-09 10:08:00,74.8,73.6,30.00,West,272,0.0,0.0,96,0.00,,,0.02,Wunderground v.1.15,2013-08-09 14:08:00,
2013-08-09 10:09:00,74.8,73.6,30.00,SSW,194,0.0,0.0,96,0.00,,,0.02,Wunderground v.1.15,2013-08-09 14:09:00,
2013-08-09 10:10:00,74.8,73.6,30.00,SSW,194,0.0,0.0,96,0.00,,,0.02,Wunderground v.1.15,2013-08-09 14:10:00,
2013-08-09 10:11:00,74.8,73.6,30.00,SSW,194,0.0,0.0,96,0.00,,,0.02,Wunderground v.1.15,2013-08-09 14:11:00,
2013-08-09 10:13:00,74.9,73.7,30.00,SSW,194,0.0,0.0,96,0.00,,,0.02,Wunderground v.1.15,2013-08-09 14:13:00,
2013-08-09 10:16:00,74.9,73.7,30.00,SW,228,0.0,0.0,96,0.00,,,0.02,Wunderground v.1.15,2013-08-09 14:16:00,
2013-08-09 10:18:00,74.9,73.7,30.00,SW,228,0.0,0.0,96,0.00,,,0.02,Wunderground v.1.15,2013-08-09 14:18:00,
2013-08-09 10:19:00,74.8,73.6,30.00,WSW,254,0.0,0.0,96,0.00,,,0.02,Wunderground v.1.15,2013-08-09 14:19:00,
2013-08-09 10:20:00,74.8,73.6,30.00,WSW,254,0.0,0.0,96,0.00,,,0.02,Wunderground v.1.15,2013-08-09 14:20:00,
2013-08-09 10:23:00,74.8,73.6,30.00,NW,318,0.0,0.0,96,0.00,,,0.02,Wunderground v.1.15,2013-08-09 14:23:00,
2013-08-09 10:24:00,74.8,73.6,30.00,SSW,205,0.0,0.0,96,0.00,,,0.02,Wunderground v.1.15,2013-08-09 14:24:00,
2013-08-09 10:26:00,74.8,73.6,30.00,South,182,0.0,1.0,96,0.00,,,0.02,Wunderground v.1.15,2013-08-09 14:26:00,
2013-08-09 10:28:00,74.8,73.6,30.00,South,182,0.0,0.0,96,0.00,,,0.02,Wunderground v.1.15,2013-08-09 14:28:00,
2013-08-09 10:30:00,74.8,73.6,30.00,SW,227,0.0,0.0,96,0.00,,,0.02,Wunderground v.1.15,2013-08-09 14:30:00,
2013-08-09 10:32:00,74.8,73.6,30.00,WSW,251,0.0,2.0,96,0.00,,,0.02,Wunderground v.1.15,2013-08-09 14:32:00,
2013-08-09 10:35:00,74.9,73.7,30.00,WSW,246,1.0,2.0,96,0.00,,,0.02,Wunderground v.1.15,2013-08-09 14:35:00,
2013-08-09 10:37:00,75.0,73.8,30.00,WSW,246,1.0,2.0,96,0.00,,,0.02,Wunderground v.1.15,2013-08-09 14:37:00,
2013-08-09 10:39:00,75.0,73.8,30.01,South,184,1.0,1.0,96,0.00,,,0.02,Wunderground v.1.15,2013-08-09 14:39:00,
2013-08-09 10:43:00,75.0,73.8,30.01,South,191,1.0,3.0,96,0.00,,,0.02,Wunderground v.1.15,2013-08-09 14:43:00,
2013-08-09 10:44:00,75.0,73.8,30.01,South,191,1.0,3.0,96,0.00,,,0.02,Wunderground v.1.15,2013-08-09 14:44:00,
2013-08-09 10:46:00,74.9,73.7,30.01,SW,221,1.0,3.0,96,0.00,,,0.02,Wunderground v.1.15,2013-08-09 14:46:00,
2013-08-09 10:49:00,75.0,73.8,30.01,SE,132,1.0,1.0,96,0.00,,,0.02,Wunderground v.1.15,2013-08-09 14:49:00,
2013-08-09 10:50:00,75.0,73.8,30.01,SE,132,1.0,1.0,96,0.00,,,0.02,Wunderground v.1.15,2013-08-09 14:50:00,
2013-08-09 10:52:00,75.0,73.8,30.01,WSW,254,1.0,2.0,96,0.00,,,0.02,Wunderground v.1.15,2013-08-09 14:52:00,
2013-08-09 10:54:00,75.0,73.8,30.01,SSW,202,1.0,2.0,96,0.00,,,0.02,Wunderground v.1.15,2013-08-09 14:54:00,
2013-08-09 10:56:00,75.0,73.8,30.01,SSW,202,1.0,2.0,96,0.00,,,0.02,Wunderground v.1.15,2013-08-09 14:56:00,
2013-08-09 10:59:00,75.0,73.8,30.01,SSW,202,1.0,1.0,96,0.00,,,0.02,Wunderground v.1.15,2013-08-09 14:59:00,
2013-08-09 11:01:00,75.1,73.9,30.01,SSW,202,1.0,1.0,96,0.00,,,0.02,Wunderground v.1.15,2013-08-09 15:01:00,
2013-08-09 11:02:00,75.1,73.9,30.01,SSW,202,0.0,1.0,96,0.00,,,0.02,Wunderground v.1.15,2013-08-09 15:02:00,
2013-08-09 11:03:00,75.1,73.9,30.01,SW,215,0.0,2.0,96,0.00,,,0.02,Wunderground v.1.15,2013-08-09 15:03:00,
2013-08-09 11:07:00,75.1,73.9,30.01,SW,219,0.0,2.0,96,0.00,,,0.02,Wunderground v.1.15,2013-08-09 15:07:00,
2013-08-09 11:08:00,75.1,73.9,30.01,SW,219,0.0,0.0,96,0.00,,,0.02,Wunderground v.1.15,2013-08-09 15:08:00,
2013-08-09 11:09:00,75.1,73.9,30.01,SW,224,0.0,0.0,96,0.00,,,0.02,Wunderground v.1.15,2013-08-09 15:09:00,
2013-08-09 11:13:00,75.1,73.9,30.01,SE,136,1.0,3.0,96,0.00,,,0.02,Wunderground v.1.15,2013-08-09 15:13:00,
2013-08-09 11:14:00,75.2,74.0,30.01,SE,136,1.0,3.0,96,0.00,,,0.02,Wunderground v.1.15,2013-08-09 15:14:00,
2013-08-09 11:16:00,75.2,74.0,30.01,SSW,210,0.0,3.0,96,0.00,,,0.02,Wunderground v.1.15,2013-08-09 15:16:00,
2013-08-09 11:20:00,75.2,73.7,30.01,SSW,206,0.0,3.0,95,0.00,,,0.02,Wunderground v.1.15,2013-08-09 15:20:00,
2013-08-09 11:21:00,75.1,73.6,30.01,SW,217,0.0,3.0,95,0.00,,,0.02,Wunderground v.1.15,2013-08-09 15:21:00,
2013-08-09 11:23:00,75.1,73.6,30.01,NW,304,0.0,3.0,95,0.00,,,0.02,Wunderground v.1.15,2013-08-09 15:23:00,
2013-08-09 11:24:00,75.2,73.7,30.01,SSW,211,1.0,3.0,95,0.00,,,0.02,Wunderground v.1.15,2013-08-09 15:24:00,
2013-08-09 11:26:00,75.3,73.8,30.01,SW,219,1.0,3.0,95,0.00,,,0.02,Wunderground v.1.15,2013-08-09 15:26:00,
2013-08-09 11:27:00,75.4,73.9,30.01,NNW,329,1.0,3.0,95,0.00,,,0.02,Wunderground v.1.15,2013-08-09 15:27:00,
2013-08-09 11:29:00,75.6,74.1,30.01,SSW,194,1.0,2.0,95,0.00,,,0.02,Wunderground v.1.15,2013-08-09 15:29:00,
2013-08-09 11:31:00,75.7,74.5,30.01,WSW,246,1.0,5.0,96,0.00,,,0.02,Wunderground v.1.15,2013-08-09 15:31:00,
2013-08-09 11:32:00,75.8,74.6,30.01,North,350,1.0,5.0,96,0.00,,,0.02,Wunderground v.1.15,2013-08-09 15:32:00,
2013-08-09 11:36:00,76.1,74.6,30.01,NW,310,1.0,5.0,95,0.00,,,0.02,Wunderground v.1.15,2013-08-09 15:36:00,
2013-08-09 11:37:00,76.1,74.6,30.01,SSW,194,1.0,5.0,95,0.00,,,0.02,Wunderground v.1.15,2013-08-09 15:37:00,
2013-08-09 11:38:00,76.2,74.7,30.01,SW,233,1.0,1.0,95,0.00,,,0.02,Wunderground v.1.15,2013-08-09 15:38:00,
2013-08-09 11:41:00,76.5,75.0,30.01,SW,230,1.0,1.0,95,0.00,,,0.02,Wunderground v.1.15,2013-08-09 15:41:00,
2013-08-09 11:43:00,76.6,75.1,30.01,SW,230,1.0,1.0,95,0.00,,,0.02,Wunderground v.1.15,2013-08-09 15:43:00,
2013-08-09 11:46:00,76.6,74.7,30.01,South,188,1.0,4.0,94,0.00,,,0.02,Wunderground v.1.15,2013-08-09 15:46:00,
2013-08-09 11:49:00,76.7,74.8,30.01,SSW,211,1.0,1.0,94,0.00,,,0.02,Wunderground v.1.15,2013-08-09 15:49:00,
2013-08-09 11:51:00,76.8,74.9,30.01,SSW,204,1.0,1.0,94,0.00,,,0.02,Wunderground v.1.15,2013-08-09 15:51:00,
2013-08-09 11:52:00,76.8,74.9,30.01,West,264,1.0,3.0,94,0.00,,,0.02,Wunderground v.1.15,2013-08-09 15:52:00,
2013-08-09 11:56:00,77.0,74.8,30.01,West,265,1.0,3.0,93,0.00,,,0.02,Wunderground v.1.15,2013-08-09 15:56:00,
2013-08-09 11:57:00,77.0,74.8,30.01,South,179,1.0,3.0,93,0.00,,,0.02,Wunderground v.1.15,2013-08-09 15:57:00,
2013-08-09 11:59:00,77.1,74.6,30.01,WSW,242,1.0,1.0,92,0.00,,,0.02,Wunderground v.1.15,2013-08-09 15:59:00,
2013-08-09 12:01:00,77.2,74.7,30.01,WNW,301,1.0,1.0,92,0.00,,,0.02,Wunderground v.1.15,2013-08-09 16:01:00,
2013-08-09 12:02:00,77.2,75.0,30.01,South,171,1.0,3.0,93,0.00,,,0.02,Wunderground v.1.15,2013-08-09 16:02:00,
2013-08-09 12:04:00,77.3,74.8,30.01,WNW,286,1.0,3.0,92,0.00,,,0.02,Wunderground v.1.15,2013-08-09 16:04:00,
2013-08-09 12:05:00,77.3,74.8,30.01,WNW,286,1.0,3.0,92,0.00,,,0.02,Wunderground v.1.15,2013-08-09 16:05:00,
2013-08-09 12:06:00,77.3,74.8,30.01,WNW,286,1.0,3.0,92,0.00,,,0.02,Wunderground v.1.15,2013-08-09 16:06:00,
2013-08-09 12:10:00,77.5,75.0,30.01,South,177,0.0,1.0,92,0.00,,,0.02,Wunderground v.1.15,2013-08-09 16:10:00,
2013-08-09 12:11:00,77.6,75.1,30.01,South,182,0.0,1.0,92,0.00,,,0.02,Wunderground v.1.15,2013-08-09 16:11:00,
2013-08-09 12:12:00,77.6,75.1,30.01,WNW,294,0.0,1.0,92,0.00,,,0.02,Wunderground v.1.15,2013-08-09 16:12:00,
2013-08-09 12:14:00,77.8,75.0,30.01,WNW,288,1.0,1.0,91,0.00,,,0.02,Wunderground v.1.15,2013-08-09 16:14:00,
2013-08-09 12:17:00,77.9,75.1,30.01,South,181,1.0,1.0,91,0.00,,,0.02,Wunderground v.1.15,2013-08-09 16:17:00,
2013-08-09 12:20:00,78.1,75.3,30.01,WSW,257,1.0,1.0,91,0.00,,,0.02,Wunderground v.1.15,2013-08-09 16:20:00,
2013-08-09 12:23:00,78.2,74.7,30.01,SW,222,1.0,3.0,89,0.00,,,0.02,Wunderground v.1.15,2013-08-09 16:23:00,
2013-08-09 12:24:00,78.2,74.7,30.01,WSW,237,1.0,3.0,89,0.00,,,0.02,Wunderground v.1.15,2013-08-09 16:24:00,
2013-08-09 12:27:00,78.2,75.0,30.01,SSW,210,1.0,3.0,90,0.00,,,0.02,Wunderground v.1.15,2013-08-09 16:27:00,
2013-08-09 12:29:00,78.3,75.1,30.01,SW,224,1.0,1.0,90,0.00,,,0.02,Wunderground v.1.15,2013-08-09 16:29:00,
2013-08-09 12:30:00,78.3,75.1,30.01,SW,224,1.0,1.0,90,0.00,,,0.02,Wunderground v.1.15,2013-08-09 16:30:00,
2013-08-09 12:31:00,78.3,74.8,30.01,SW,236,1.0,1.0,89,0.00,,,0.02,Wunderground v.1.15,2013-08-09 16:31:00,
2013-08-09 12:33:00,78.5,75.0,30.00,SW,217,1.0,1.0,89,0.00,,,0.02,Wunderground v.1.15,2013-08-09 16:33:00,
2013-08-09 12:36:00,78.7,75.2,30.00,South,189,1.0,1.0,89,0.00,,,0.02,Wunderground v.1.15,2013-08-09 16:36:00,
2013-08-09 12:38:00,78.8,75.6,30.00,South,189,1.0,1.0,90,0.00,,,0.02,Wunderground v.1.15,2013-08-09 16:38:00,
2013-08-09 12:40:00,79.0,75.8,30.00,NW,317,1.0,1.0,90,0.00,,,0.02,Wunderground v.1.15,2013-08-09 16:40:00,
2013-08-09 12:41:00,79.0,75.8,30.00,SSW,205,1.0,1.0,90,0.00,,,0.02,Wunderground v.1.15,2013-08-09 16:41:00,
2013-08-09 12:43:00,79.1,75.6,30.00,SSW,205,0.0,1.0,89,0.00,,,0.02,Wunderground v.1.15,2013-08-09 16:43:00,
2013-08-09 12:45:00,79.4,75.9,30.00,South,186,0.0,1.0,89,0.00,,,0.02,Wunderground v.1.15,2013-08-09 16:45:00,
2013-08-09 12:46:00,79.4,75.9,30.00,SSW,198,0.0,2.0,89,0.00,,,0.02,Wunderground v.1.15,2013-08-09 16:46:00,
2013-08-09 12:49:00,79.7,75.8,30.00,South,186,1.0,2.0,88,0.00,,,0.02,Wunderground v.1.15,2013-08-09 16:49:00,
2013-08-09 12:50:00,79.7,75.8,30.00,South,188,1.0,2.0,88,0.00,,,0.02,Wunderground v.1.15,2013-08-09 16:50:00,
2013-08-09 12:52:00,80.0,76.1,30.01,SSW,207,1.0,3.0,88,0.00,,,0.02,Wunderground v.1.15,2013-08-09 16:52:00,
2013-08-09 12:54:00,80.3,76.4,30.01,SSW,207,1.0,3.0,88,0.00,,,0.02,Wunderground v.1.15,2013-08-09 16:54:00,
2013-08-09 12:55:00,80.3,76.1,30.01,SW,219,1.0,3.0,87,0.00,,,0.02,Wunderground v.1.15,2013-08-09 16:55:00,
2013-08-09 12:57:00,80.4,75.8,30.01,NW,325,1.0,1.0,86,0.00,,,0.02,Wunderground v.1.15,2013-08-09 16:57:00,
2013-08-09 13:02:00,80.5,75.9,30.01,WNW,292,1.0,3.0,86,0.00,,,0.02,Wunderground v.1.15,2013-08-09 17:02:00,
2013-08-09 13:03:00,80.5,75.6,30.00,SW,232,1.0,3.0,85,0.00,,,0.02,Wunderground v.1.15,2013-08-09 17:03:00,
2013-08-09 13:04:00,80.5,75.6,30.00,SW,232,1.0,3.0,85,0.00,,,0.02,Wunderground v.1.15,2013-08-09 17:04:00,
2013-08-09 13:05:00,74.8,73.6,30.05,SSW,211,0.0,0.0,96,0.00,,,0.00,Wunderground v.1.15,2013-08-09 17:05:00,
2013-08-09 13:06:00,74.8,73.6,30.05,SSW,211,0.0,0.0,96,0.00,,,0.00,Wunderground v.1.15,2013-08-09 17:06:00,
2013-08-09 13:07:00,80.7,75.8,30.00,South,178,1.0,3.0,85,0.00,,,0.02,Wunderground v.1.15,2013-08-09 17:07:00,
2013-08-09 13:08:00,74.8,73.6,30.05,SSW,211,0.0,0.0,96,0.00,,,0.00,Wunderground v.1.15,2013-08-09 17:08:00,
2013-08-09 13:09:00,80.8,75.9,30.01,West,281,1.0,1.0,85,0.00,,,0.02,Wunderground v.1.15,2013-08-09 17:09:00,
2013-08-09 13:10:00,80.8,76.2,30.01,West,281,1.0,1.0,86,0.00,,,0.02,Wunderground v.1.15,2013-08-09 17:10:00,
2013-08-09 13:11:00,74.8,73.6,30.05,SW,223,0.0,0.0,96,0.00,,,0.00,Wunderground v.1.15,2013-08-09 17:11:00,
2013-08-09 13:12:00,74.8,73.6,30.05,SW,223,0.0,0.0,96,0.00,,,0.00,Wunderground v.1.15,2013-08-09 17:12:00,
2013-08-09 13:13:00,74.8,73.6,30.05,SW,223,0.0,0.0,96,0.00,,,0.00,Wunderground v.1.15,2013-08-09 17:13:00,
2013-08-09 13:14:00,80.5,75.9,30.00,WSW,255,1.0,1.0,86,0.00,,,0.02,Wunderground v.1.15,2013-08-09 17:14:00,
2013-08-09 13:15:00,74.8,73.6,30.05,SW,223,0.0,0.0,96,0.00,,,0.00,Wunderground v.1.15,2013-08-09 17:15:00,
2013-08-09 13:16:00,80.5,75.9,30.00,South,177,1.0,1.0,86,0.00,,,0.02,Wunderground v.1.15,2013-08-09 17:16:00,
2013-08-09 13:17:00,80.5,75.9,30.00,South,177,1.0,1.0,86,0.00,,,0.02,Wunderground v.1.15,2013-08-09 17:17:00,
2013-08-09 13:18:00,74.7,73.5,30.05,SW,223,0.0,0.0,96,0.00,,,0.00,Wunderground v.1.15,2013-08-09 17:18:00,
2013-08-09 13:19:00,74.7,73.5,30.05,SW,223,0.0,0.0,96,0.00,,,0.00,Wunderground v.1.15,2013-08-09 17:19:00,
2013-08-09 13:20:00,74.8,73.6,30.05,SW,223,0.0,0.0,96,0.00,,,0.00,Wunderground v.1.15,2013-08-09 17:20:00,
2013-08-09 13:21:00,80.3,75.4,30.01,South,179,1.0,3.0,85,0.00,,,0.02,Wunderground v.1.15,2013-08-09 17:21:00,
2013-08-09 13:22:00,80.3,75.0,30.00,SSW,204,1.0,3.0,84,0.00,,,0.02,Wunderground v.1.15,2013-08-09 17:22:00,
2013-08-09 13:23:00,74.7,73.5,30.05,SW,223,0.0,0.0,96,0.00,,,0.00,Wunderground v.1.15,2013-08-09 17:23:00,
2013-08-09 13:24:00,74.7,73.5,30.05,SW,223,0.0,0.0,96,0.00,,,0.00,Wunderground v.1.15,2013-08-09 17:24:00,
2013-08-09 13:25:00,74.7,73.5,30.05,SW,223,0.0,0.0,96,0.00,,,0.00,Wunderground v.1.15,2013-08-09 17:25:00,
2013-08-09 13:26:00,74.7,73.5,30.05,SW,223,0.0,0.0,96,0.00,,,0.00,Wunderground v.1.15,2013-08-09 17:26:00,
2013-08-09 13:27:00,80.0,75.4,30.01,WSW,239,1.0,3.0,86,0.00,,,0.02,Wunderground v.1.15,2013-08-09 17:27:00,
2013-08-09 13:28:00,80.0,75.4,30.00,South,190,1.0,2.0,86,0.00,,,0.02,Wunderground v.1.15,2013-08-09 17:28:00,
2013-08-09 13:29:00,79.8,74.9,30.00,SSW,201,1.0,2.0,85,0.00,,,0.02,Wunderground v.1.15,2013-08-09 17:29:00,
2013-08-09 13:30:00,74.7,73.5,30.05,SW,223,0.0,0.0,96,0.00,,,0.00,Wunderground v.1.15,2013-08-09 17:30:00,
2013-08-09 13:31:00,74.7,73.5,30.05,SW,223,0.0,0.0,96,0.00,,,0.00,Wunderground v.1.15,2013-08-09 17:31:00,
2013-08-09 13:32:00,74.7,73.5,30.05,SW,223,0.0,0.0,96,0.00,,,0.00,Wunderground v.1.15,2013-08-09 17:32:00,
2013-08-09 13:33:00,74.6,73.4,30.05,SW,223,0.0,0.0,96,0.00,,,0.00,Wunderground v.1.15,2013-08-09 17:33:00,
2013-08-09 13:34:00,74.6,73.4,30.05,SW,223,0.0,0.0,96,0.00,,,0.00,Wunderground v.1.15,2013-08-09 17:34:00,
2013-08-09 13:35:00,79.3,75.1,30.00,SW,216,1.0,2.0,87,0.00,,,0.02,Wunderground v.1.15,2013-08-09 17:35:00,
2013-08-09 13:36:00,74.6,73.4,30.05,SW,223,0.0,1.0,96,0.00,,,0.00,Wunderground v.1.15,2013-08-09 17:36:00,
2013-08-09 13:37:00,79.2,75.0,30.00,WSW,250,1.0,2.0,87,0.00,,,0.02,Wunderground v.1.15,2013-08-09 17:37:00,
2013-08-09 13:38:00,79.2,75.0,30.00,SSW,204,0.0,4.0,87,0.00,,,0.02,Wunderground v.1.15,2013-08-09 17:38:00,
2013-08-09 13:39:00,74.5,73.3,30.05,SW,223,0.0,1.0,96,0.00,,,0.00,Wunderground v.1.15,2013-08-09 17:39:00,
2013-08-09 13:40:00,79.4,75.5,30.00,WSW,249,1.0,4.0,88,0.00,,,0.02,Wunderground v.1.15,2013-08-09 17:40:00,
2013-08-09 13:41:00,74.5,73.3,30.06,SW,223,0.0,0.0,96,0.00,,,0.01,Wunderground v.1.15,2013-08-09 17:41:00,
2013-08-09 13:42:00,80.0,75.1,30.00,NNW,345,1.0,4.0,85,0.00,,,0.02,Wunderground v.1.15,2013-08-09 17:42:00,
2013-08-09 13:43:00,74.5,73.3,30.06,SW,223,0.0,0.0,96,0.00,,,0.01,Wunderground v.1.15,2013-08-09 17:43:00,
2013-08-09 13:44:00,80.6,75.7,30.00,South,184,1.0,6.0,85,0.00,,,0.02,Wunderground v.1.15,2013-08-09 17:44:00,
2013-08-09 13:45:00,74.4,73.2,30.05,SW,223,0.0,0.0,96,0.00,,,0.01,Wunderground v.1.15,2013-08-09 17:45:00,
2013-08-09 13:46:00,80.9,75.2,30.00,ESE,123,1.0,6.0,83,0.00,,,0.02,Wunderground v.1.15,2013-08-09 17:46:00,
2013-08-09 13:47:00,74.4,73.2,30.05,SW,223,0.0,0.0,96,0.00,,,0.01,Wunderground v.1.15,2013-08-09 17:47:00,
2013-08-09 13:48:00,74.4,73.2,30.05,SW,223,0.0,0.0,96,0.00,,,0.01,Wunderground v.1.15,2013-08-09 17:48:00,
2013-08-09 13:49:00,74.4,73.2,30.05,SW,223,0.0,0.0,96,0.00,,,0.01,Wunderground v.1.15,2013-08-09 17:49:00,
2013-08-09 13:50:00,82.0,76.3,30.00,WSW,242,2.0,5.0,83,0.00,,,0.02,Wunderground v.1.15,2013-08-09 17:50:00,
2013-08-09 13:51:00,74.4,73.2,30.05,SW,223,0.0,0.0,96,0.00,,,0.01,Wunderground v.1.15,2013-08-09 17:51:00,
2013-08-09 13:52:00,82.4,75.6,30.00,West,263,2.0,6.0,80,0.00,,,0.02,Wunderground v.1.15,2013-08-09 17:52:00,
2013-08-09 13:53:00,74.4,73.2,30.06,South,183,0.0,1.0,96,0.00,,,0.01,Wunderground v.1.15,2013-08-09 17:53:00,
2013-08-09 13:54:00,74.3,73.1,30.05,South,183,0.0,1.0,96,0.00,,,0.01,Wunderground v.1.15,2013-08-09 17:54:00,
2013-08-09 13:55:00,82.5,76.4,30.00,WSW,240,2.0,6.0,82,0.00,,,0.02,Wunderground v.1.15,2013-08-09 17:55:00,
2013-08-09 13:56:00,74.3,73.1,30.05,South,183,0.0,1.0,96,0.00,,,0.01,Wunderground v.1.15,2013-08-09 17:56:00,
2013-08-09 13:57:00,82.6,76.2,30.00,NNW,339,2.0,6.0,81,0.00,,,0.02,Wunderground v.1.15,2013-08-09 17:57:00,
2013-08-09 13:58:00,74.3,73.1,30.05,South,183,0.0,1.0,96,0.00,,,0.01,Wunderground v.1.15,2013-08-09 17:58:00,
2013-08-09 13:59:00,82.6,76.2,30.00,SE,135,2.0,2.0,81,0.00,,,0.02,Wunderground v.1.15,2013-08-09 17:59:00,
2013-08-09 14:00:00,74.2,73.0,30.05,South,183,0.0,0.0,96,0.00,,,0.01,Wunderground v.1.15,2013-08-09 18:00:00,
2013-08-09 14:01:00,82.6,76.2,30.00,West,265,2.0,3.0,81,0.00,,,0.02,Wunderground v.1.15,2013-08-09 18:01:00,
2013-08-09 14:02:00,82.6,76.2,30.00,South,179,2.0,4.0,81,0.00,,,0.02,Wunderground v.1.15,2013-08-09 18:02:00,
2013-08-09 14:03:00,74.2,73.0,30.05,South,183,0.0,0.0,96,0.00,,,0.01,Wunderground v.1.15,2013-08-09 18:03:00,
2013-08-09 14:04:00,74.2,73.0,30.05,South,183,0.0,0.0,96,0.00,,,0.01,Wunderground v.1.15,2013-08-09 18:04:00,
2013-08-09 14:05:00,82.6,76.2,29.99,NW,319,2.0,4.0,81,0.00,,,0.02,Wunderground v.1.15,2013-08-09 18:05:00,
2013-08-09 14:06:00,82.6,76.2,29.99,SSW,198,2.0,4.0,81,0.00,,,0.02,Wunderground v.1.15,2013-08-09 18:06:00,
2013-08-09 14:07:00,74.1,72.9,30.05,SSW,209,0.0,0.0,96,0.00,,,0.01,Wunderground v.1.15,2013-08-09 18:07:00,
2013-08-09 14:08:00,82.9,75.7,29.99,SW,221,2.0,2.0,79,0.00,,,0.02,Wunderground v.1.15,2013-08-09 18:08:00,
2013-08-09 14:09:00,83.1,75.9,29.99,NNW,341,2.0,2.0,79,0.00,,,0.02,Wunderground v.1.15,2013-08-09 18:09:00,
2013-08-09 14:10:00,74.1,72.9,30.05,SSW,192,0.0,0.0,96,0.00,,,0.01,Wunderground v.1.15,2013-08-09 18:10:00,
2013-08-09 14:11:00,83.4,77.0,29.99,SW,220,2.0,2.0,81,0.00,,,0.02,Wunderground v.1.15,2013-08-09 18:11:00,
2013-08-09 14:12:00,74.0,72.8,30.05,SSW,192,0.0,0.0,96,0.00,,,0.01,Wunderground v.1.15,2013-08-09 18:12:00,
2013-08-09 14:13:00,83.7,77.2,29.99,SW,223,1.0,2.0,81,0.00,,,0.02,Wunderground v.1.15,2013-08-09 18:13:00,
2013-08-09 14:14:00,83.8,77.3,29.99,SW,225,1.0,2.0,81,0.00,,,0.02,Wunderground v.1.15,2013-08-09 18:14:00,
2013-08-09 14:15:00,83.8,77.3,29.99,WSW,257,1.0,2.0,81,0.00,,,0.02,Wunderground v.1.15,2013-08-09 18:15:00,
2013-08-09 14:16:00,84.0,77.2,29.99,South,181,1.0,2.0,80,0.00,,,0.02,Wunderground v.1.15,2013-08-09 18:16:00,
2013-08-09 14:17:00,74.0,72.8,30.05,SSW,192,0.0,0.0,96,0.00,,,0.01,Wunderground v.1.15,2013-08-09 18:17:00,
2013-08-09 14:18:00,73.9,72.7,30.05,SSW,192,0.0,0.0,96,0.00,,,0.01,Wunderground v.1.15,2013-08-09 18:18:00,
2013-08-09 14:19:00,84.1,76.9,29.99,SSW,192,1.0,1.0,79,0.00,,,0.02,Wunderground v.1.15,2013-08-09 18:19:00,
2013-08-09 14:20:00,84.1,76.5,29.99,SSW,205,1.0,1.0,78,0.00,,,0.02,Wunderground v.1.15,2013-08-09 18:20:00,
2013-08-09 14:21:00,84.1,76.9,29.99,SSW,205,1.0,1.0,79,0.00,,,0.02,Wunderground v.1.15,2013-08-09 18:21:00,
2013-08-09 14:22:00,73.9,72.7,30.05,SSW,192,0.0,0.0,96,0.00,,,0.01,Wunderground v.1.15,2013-08-09 18:22:00,
2013-08-09 14:23:00,73.9,72.7,30.05,SSW,192,0.0,0.0,96,0.00,,,0.01,Wunderground v.1.15,2013-08-09 18:23:00,
2013-08-09 14:24:00,73.8,72.6,30.05,SSW,192,0.0,0.0,96,0.00,,,0.01,Wunderground v.1.15,2013-08-09 18:24:00,
2013-08-09 14:25:00,73.8,72.6,30.05,SSW,192,0.0,0.0,96,0.00,,,0.01,Wunderground v.1.15,2013-08-09 18:25:00,
2013-08-09 14:26:00,83.7,76.1,30.00,WSW,246,1.0,3.0,78,0.00,,,0.02,Wunderground v.1.15,2013-08-09 18:26:00,
2013-08-09 14:27:00,83.6,76.0,30.00,SSW,204,1.0,3.0,78,0.00,,,0.02,Wunderground v.1.15,2013-08-09 18:27:00,
2013-08-09 14:28:00,83.5,75.9,30.00,SSW,204,1.0,1.0,78,0.00,,,0.02,Wunderground v.1.15,2013-08-09 18:28:00,
2013-08-09 14:29:00,73.8,72.6,30.05,SSW,192,0.0,1.0,96,0.00,,,0.01,Wunderground v.1.15,2013-08-09 18:29:00,
2013-08-09 14:30:00,83.3,76.1,30.00,West,262,1.0,2.0,79,0.00,,,0.02,Wunderground v.1.15,2013-08-09 18:30:00,
2013-08-09 14:31:00,73.7,72.5,30.05,SSW,192,0.0,0.0,96,0.00,,,0.01,Wunderground v.1.15,2013-08-09 18:31:00,
2013-08-09 14:32:00,73.7,72.5,30.05,SSW,192,0.0,0.0,96,0.00,,,0.01,Wunderground v.1.15,2013-08-09 18:32:00,
2013-08-09 14:33:00,82.8,75.6,30.00,SW,226,1.0,7.0,79,0.00,,,0.02,Wunderground v.1.15,2013-08-09 18:33:00,
2013-08-09 14:34:00,73.7,72.5,30.05,SSW,192,0.0,0.0,96,0.00,,,0.01,Wunderground v.1.15,2013-08-09 18:34:00,
2013-08-09 14:35:00,73.7,72.5,30.05,SSW,192,0.0,0.0,96,0.00,,,0.01,Wunderground v.1.15,2013-08-09 18:35:00,
2013-08-09 14:36:00,82.4,75.2,29.99,SSW,197,1.0,7.0,79,0.00,,,0.02,Wunderground v.1.15,2013-08-09 18:36:00,
2013-08-09 14:37:00,73.7,72.5,30.05,SSW,192,0.0,0.0,96,0.00,,,0.01,Wunderground v.1.15,2013-08-09 18:37:00,
2013-08-09 14:39:00,73.7,72.5,30.05,SSW,192,0.0,0.0,96,0.00,,,0.01,Wunderground v.1.15,2013-08-09 18:39:00,
2013-08-09 14:40:00,82.1,76.1,29.99,SE,144,1.0,2.0,82,0.00,,,0.02,Wunderground v.1.15,2013-08-09 18:40:00,
2013-08-09 14:41:00,73.7,72.5,30.05,SSW,192,0.0,0.0,96,0.00,,,0.01,Wunderground v.1.15,2013-08-09 18:41:00,
2013-08-09 14:42:00,82.1,76.1,29.99,SW,214,1.0,2.0,82,0.00,,,0.02,Wunderground v.1.15,2013-08-09 18:42:00,
2013-08-09 14:43:00,82.2,76.2,29.99,WSW,246,1.0,2.0,82,0.00,,,0.02,Wunderground v.1.15,2013-08-09 18:43:00,
2013-08-09 14:44:00,73.6,72.4,30.05,SSW,192,0.0,0.0,96,0.00,,,0.01,Wunderground v.1.15,2013-08-09 18:44:00,
2013-08-09 14:47:00,82.4,76.0,29.99,WNW,303,1.0,2.0,81,0.00,,,0.02,Wunderground v.1.15,2013-08-09 18:47:00,
2013-08-09 14:49:00,82.4,76.0,29.99,South,191,1.0,6.0,81,0.00,,,0.02,Wunderground v.1.15,2013-08-09 18:49:00,
2013-08-09 14:52:00,82.5,75.7,29.99,South,180,1.0,6.0,80,0.00,,,0.02,Wunderground v.1.15,2013-08-09 18:52:00,
2013-08-09 14:54:00,82.7,76.3,29.99,WSW,240,1.0,6.0,81,0.00,,,0.02,Wunderground v.1.15,2013-08-09 18:54:00,
2013-08-09 14:56:00,82.9,76.1,29.99,SW,234,1.0,6.0,80,0.00,,,0.02,Wunderground v.1.15,2013-08-09 18:56:00,
2013-08-09 15:00:00,83.0,76.2,29.99,SW,231,1.0,1.0,80,0.00,,,0.02,Wunderground v.1.15,2013-08-09 19:00:00,
2013-08-09 15:02:00,82.8,75.2,29.99,West,270,1.0,1.0,78,0.00,,,0.02,Wunderground v.1.15,2013-08-09 19:02:00,
2013-08-09 15:04:00,82.6,75.8,29.99,SW,229,2.0,2.0,80,0.00,,,0.02,Wunderground v.1.15,2013-08-09 19:04:00,
2013-08-09 15:05:00,82.6,75.8,29.99,SW,229,2.0,2.0,80,0.00,,,0.02,Wunderground v.1.15,2013-08-09 19:05:00,
2013-08-09 15:07:00,82.4,76.0,29.99,SSE,162,1.0,2.0,81,0.00,,,0.02,Wunderground v.1.15,2013-08-09 19:07:00,
2013-08-09 15:10:00,82.5,75.7,29.99,SSW,211,1.0,2.0,80,0.00,,,0.02,Wunderground v.1.15,2013-08-09 19:10:00,
2013-08-09 15:12:00,82.7,76.3,29.99,WSW,241,1.0,2.0,81,0.00,,,0.02,Wunderground v.1.15,2013-08-09 19:12:00,
2013-08-09 15:14:00,82.9,75.7,29.99,South,180,1.0,4.0,79,0.00,,,0.02,Wunderground v.1.15,2013-08-09 19:14:00,
2013-08-09 15:16:00,83.0,76.2,29.99,West,281,1.0,4.0,80,0.00,,,0.02,Wunderground v.1.15,2013-08-09 19:16:00,
2013-08-09 15:17:00,83.0,76.2,29.99,SSW,202,1.0,4.0,80,0.00,,,0.02,Wunderground v.1.15,2013-08-09 19:17:00,
2013-08-09 15:20:00,83.2,76.0,29.99,WSW,241,1.0,2.0,79,0.00,,,0.02,Wunderground v.1.15,2013-08-09 19:20:00,
2013-08-09 15:23:00,83.2,76.4,29.99,NW,325,1.0,2.0,80,0.00,,,0.02,Wunderground v.1.15,2013-08-09 19:23:00,
2013-08-09 15:24:00,83.2,75.6,29.99,NW,306,1.0,2.0,78,0.00,,,0.02,Wunderground v.1.15,2013-08-09 19:24:00,
2013-08-09 15:25:00,83.2,76.0,29.99,SW,221,1.0,4.0,79,0.00,,,0.02,Wunderground v.1.15,2013-08-09 19:25:00,
2013-08-09 15:27:00,83.3,75.3,29.99,SW,236,1.0,4.0,77,0.00,,,0.02,Wunderground v.1.15,2013-08-09 19:27:00,
2013-08-09 15:28:00,83.2,75.2,29.99,West,267,1.0,3.0,77,0.00,,,0.02,Wunderground v.1.15,2013-08-09 19:28:00,
2013-08-09 15:31:00,83.2,75.2,29.99,WNW,300,1.0,3.0,77,0.00,,,0.02,Wunderground v.1.15,2013-08-09 19:31:00,
2013-08-09 15:32:00,83.1,75.5,29.99,WNW,300,1.0,3.0,78,0.00,,,0.02,Wunderground v.1.15,2013-08-09 19:32:00,
2013-08-09 15:35:00,82.8,75.2,29.99,NW,304,2.0,9.0,78,0.00,,,0.02,Wunderground v.1.15,2013-08-09 19:35:00,
2013-08-09 15:37:00,82.7,75.5,29.99,SSE,165,2.0,9.0,79,0.00,,,0.02,Wunderground v.1.15,2013-08-09 19:37:00,
2013-08-09 15:42:00,82.7,74.8,29.99,NW,313,1.0,2.0,77,0.00,,,0.02,Wunderground v.1.15,2013-08-09 19:42:00,
2013-08-09 15:43:00,82.7,75.1,29.99,East,97,1.0,2.0,78,0.00,,,0.02,Wunderground v.1.15,2013-08-09 19:43:00,
2013-08-09 15:45:00,82.9,75.3,29.99,WNW,303,1.0,2.0,78,0.00,,,0.02,Wunderground v.1.15,2013-08-09 19:45:00,
2013-08-09 15:48:00,83.2,76.0,29.99,SSW,209,1.0,5.0,79,0.00,,,0.02,Wunderground v.1.15,2013-08-09 19:48:00,
2013-08-09 15:49:00,83.4,76.2,29.99,West,260,1.0,5.0,79,0.00,,,0.02,Wunderground v.1.15,2013-08-09 19:49:00,
2013-08-09 15:51:00,83.5,75.5,29.99,SSW,211,2.0,5.0,77,0.00,,,0.02,Wunderground v.1.15,2013-08-09 19:51:00,
2013-08-09 15:52:00,83.6,76.0,29.99,NNW,338,2.0,5.0,78,0.00,,,0.02,Wunderground v.1.15,2013-08-09 19:52:00,
2013-08-09 15:53:00,83.6,76.4,29.99,SSW,213,2.0,5.0,79,0.00,,,0.02,Wunderground v.1.15,2013-08-09 19:53:00,
2013-08-09 15:55:00,83.6,76.4,29.99,SSW,213,1.0,5.0,79,0.00,,,0.02,Wunderground v.1.15,2013-08-09 19:55:00,
2013-08-09 15:57:00,83.5,75.5,29.99,SW,219,1.0,5.0,77,0.00,,,0.02,Wunderground v.1.15,2013-08-09 19:57:00,
2013-08-09 15:59:00,83.5,75.1,29.99,NW,309,1.0,2.0,76,0.00,,,0.02,Wunderground v.1.15,2013-08-09 19:59:00,
2013-08-09 16:02:00,83.6,75.2,29.99,SSW,194,1.0,2.0,76,0.00,,,0.02,Wunderground v.1.15,2013-08-09 20:02:00,
2013-08-09 16:04:00,83.6,75.6,29.99,SSW,194,1.0,2.0,77,0.00,,,0.02,Wunderground v.1.15,2013-08-09 20:04:00,
2013-08-09 16:06:00,83.7,75.7,29.98,SSW,204,1.0,2.0,77,0.00,,,0.02,Wunderground v.1.15,2013-08-09 20:06:00,
2013-08-09 16:07:00,83.7,76.1,29.98,SSW,205,1.0,2.0,78,0.00,,,0.02,Wunderground v.1.15,2013-08-09 20:07:00,
2013-08-09 16:10:00,83.8,77.0,29.98,WSW,254,1.0,1.0,80,0.00,,,0.02,Wunderground v.1.15,2013-08-09 20:10:00,
2013-08-09 16:11:00,83.8,77.0,29.98,WSW,254,0.0,1.0,80,0.00,,,0.02,Wunderground v.1.15,2013-08-09 20:11:00,
2013-08-09 16:13:00,83.9,76.3,29.98,SSW,207,0.0,5.0,78,0.00,,,0.02,Wunderground v.1.15,2013-08-09 20:13:00,
2013-08-09 16:15:00,84.1,75.7,29.98,SW,217,1.0,5.0,76,0.00,,,0.02,Wunderground v.1.15,2013-08-09 20:15:00,
2013-08-09 16:16:00,84.2,75.8,29.98,South,175,1.0,5.0,76,0.00,,,0.02,Wunderground v.1.15,2013-08-09 20:16:00,
2013-08-09 16:23:00,84.4,75.6,29.98,SSW,200,2.0,2.0,75,0.00,,,0.02,Wunderground v.1.15,2013-08-09 20:23:00,
2013-08-09 16:24:00,84.5,75.3,29.98,WNW,286,2.0,2.0,74,0.00,,,0.02,Wunderground v.1.15,2013-08-09 20:24:00,
2013-08-09 16:25:00,84.4,75.2,29.98,WNW,285,2.0,2.0,74,0.00,,,0.02,Wunderground v.1.15,2013-08-09 20:25:00,
2013-08-09 16:28:00,84.4,75.6,29.98,NE,44,1.0,1.0,75,0.00,,,0.02,Wunderground v.1.15,2013-08-09 20:28:00,
2013-08-09 16:30:00,84.4,74.8,29.98,NW,314,1.0,1.0,73,0.00,,,0.02,Wunderground v.1.15,2013-08-09 20:30:00,
2013-08-09 16:32:00,84.3,75.1,29.98,North,351,1.0,1.0,74,0.00,,,0.02,Wunderground v.1.15,2013-08-09 20:32:00,
2013-08-09 16:34:00,84.1,75.3,29.98,South,185,1.0,1.0,75,0.00,,,0.02,Wunderground v.1.15,2013-08-09 20:34:00,
2013-08-09 16:35:00,83.9,75.9,29.98,South,185,1.0,1.0,77,0.00,,,0.02,Wunderground v.1.15,2013-08-09 20:35:00,
2013-08-09 16:41:00,83.4,75.0,29.98,West,275,0.0,5.0,76,0.00,,,0.02,Wunderground v.1.15,2013-08-09 20:41:00,
2013-08-09 16:42:00,83.3,74.5,29.98,WNW,288,0.0,5.0,75,0.00,,,0.02,Wunderground v.1.15,2013-08-09 20:42:00,
2013-08-09 16:45:00,82.9,74.6,29.98,WNW,288,0.0,5.0,76,0.00,,,0.02,Wunderground v.1.15,2013-08-09 20:45:00,
2013-08-09 16:48:00,82.7,75.1,29.98,West,281,0.0,0.0,78,0.00,,,0.02,Wunderground v.1.15,2013-08-09 20:48:00,
2013-08-09 16:52:00,82.9,76.1,29.98,North,5,0.0,2.0,80,0.00,,,0.02,Wunderground v.1.15,2013-08-09 20:52:00,
2013-08-09 16:55:00,83.0,75.4,29.98,WNW,296,0.0,2.0,78,0.00,,,0.02,Wunderground v.1.15,2013-08-09 20:55:00,
2013-08-09 16:58:00,83.3,76.5,29.98,ENE,76,0.0,5.0,80,0.00,,,0.02,Wunderground v.1.15,2013-08-09 20:58:00,
2013-08-09 16:59:00,83.4,76.2,29.98,SW,232,1.0,5.0,79,0.00,,,0.02,Wunderground v.1.15,2013-08-09 20:59:00,
2013-08-09 17:01:00,83.3,75.7,29.98,North,5,1.0,5.0,78,0.00,,,0.02,Wunderground v.1.15,2013-08-09 21:01:00,
2013-08-09 17:03:00,83.2,75.6,29.98,West,262,1.0,5.0,78,0.00,,,0.02,Wunderground v.1.15,2013-08-09 21:03:00,
2013-08-09 17:05:00,83.1,75.5,29.98,SW,233,1.0,5.0,78,0.00,,,0.02,Wunderground v.1.15,2013-08-09 21:05:00,
2013-08-09 17:06:00,82.9,75.3,29.98,SW,233,1.0,5.0,78,0.00,,,0.02,Wunderground v.1.15,2013-08-09 21:06:00,
2013-08-09 17:07:00,82.8,75.6,29.98,North,355,1.0,1.0,79,0.00,,,0.02,Wunderground v.1.15,2013-08-09 21:07:00,
2013-08-09 17:09:00,82.6,75.4,29.98,WNW,295,1.0,1.0,79,0.00,,,0.02,Wunderground v.1.15,2013-08-09 21:09:00,
2013-08-09 17:10:00,82.5,75.3,29.98,NW,316,1.0,1.0,79,0.00,,,0.02,Wunderground v.1.15,2013-08-09 21:10:00,
2013-08-09 17:13:00,82.1,75.3,29.98,SSW,208,1.0,1.0,80,0.00,,,0.02,Wunderground v.1.15,2013-08-09 21:13:00,
2013-08-09 17:14:00,81.9,75.1,29.98,NE,40,1.0,4.0,80,0.00,,,0.02,Wunderground v.1.15,2013-08-09 21:14:00,
2013-08-09 17:20:00,81.4,75.0,29.97,WSW,245,1.0,1.0,81,0.00,,,0.02,Wunderground v.1.15,2013-08-09 21:20:00,
2013-08-09 17:21:00,81.3,75.3,29.98,WSW,245,1.0,1.0,82,0.00,,,0.02,Wunderground v.1.15,2013-08-09 21:21:00,
2013-08-09 17:23:00,81.2,75.2,29.98,West,260,1.0,1.0,82,0.00,,,0.02,Wunderground v.1.15,2013-08-09 21:23:00,
2013-08-09 17:25:00,81.0,75.0,29.98,WSW,254,0.0,2.0,82,0.00,,,0.02,Wunderground v.1.15,2013-08-09 21:25:00,
2013-08-09 17:28:00,80.7,75.1,29.98,West,266,0.0,0.0,83,0.00,,,0.02,Wunderground v.1.15,2013-08-09 21:28:00,
2013-08-09 17:29:00,80.5,74.9,29.98,West,266,0.0,0.0,83,0.00,,,0.02,Wunderground v.1.15,2013-08-09 21:29:00,
2013-08-09 17:31:00,80.3,75.0,29.98,West,266,0.0,0.0,84,0.00,,,0.02,Wunderground v.1.15,2013-08-09 21:31:00,
2013-08-09 17:36:00,80.1,75.2,29.98,WSW,254,0.0,1.0,85,0.00,,,0.02,Wunderground v.1.15,2013-08-09 21:36:00,
2013-08-09 17:38:00,79.8,75.2,29.98,West,278,0.0,1.0,86,0.00,,,0.02,Wunderground v.1.15,2013-08-09 21:38:00,
2013-08-09 17:41:00,79.6,75.0,29.98,West,278,0.0,1.0,86,0.00,,,0.02,Wunderground v.1.15,2013-08-09 21:41:00,
2013-08-09 17:42:00,79.5,75.3,29.98,West,278,0.0,1.0,87,0.00,,,0.02,Wunderground v.1.15,2013-08-09 21:42:00,
2013-08-09 17:48:00,79.3,75.4,29.98,West,278,0.0,0.0,88,0.00,,,0.03,Wunderground v.1.15,2013-08-09 21:48:00,
2013-08-09 17:49:00,79.2,75.3,29.98,West,278,0.0,0.0,88,0.00,,,0.03,Wunderground v.1.15,2013-08-09 21:49:00,
2013-08-09 17:50:00,79.2,75.3,29.98,West,278,0.0,0.0,88,0.00,,,0.03,Wunderground v.1.15,2013-08-09 21:50:00,
2013-08-09 17:53:00,79.1,75.6,29.99,WNW,286,0.0,0.0,89,0.00,,,0.03,Wunderground v.1.15,2013-08-09 21:53:00,
2013-08-09 17:55:00,79.0,75.1,29.99,WNW,286,0.0,0.0,88,0.00,,,0.03,Wunderground v.1.15,2013-08-09 21:55:00,
2013-08-09 17:58:00,78.9,75.0,29.99,WNW,286,0.0,0.0,88,0.00,,,0.03,Wunderground v.1.15,2013-08-09 21:58:00,
2013-08-09 18:01:00,78.8,74.9,29.99,WNW,286,0.0,0.0,88,0.00,,,0.03,Wunderground v.1.15,2013-08-09 22:01:00,
2013-08-09 18:02:00,78.8,75.3,29.99,WNW,286,0.0,0.0,89,0.00,,,0.03,Wunderground v.1.15,2013-08-09 22:02:00,
2013-08-09 18:08:00,78.8,75.3,29.99,SSW,210,0.0,0.0,89,0.00,,,0.03,Wunderground v.1.15,2013-08-09 22:08:00,
2013-08-09 18:09:00,78.7,75.2,29.99,SSW,210,0.0,0.0,89,0.00,,,0.03,Wunderground v.1.15,2013-08-09 22:09:00,
2013-08-09 18:11:00,78.7,75.2,29.99,SSW,209,0.0,1.0,89,0.00,,,0.03,Wunderground v.1.15,2013-08-09 22:11:00,
2013-08-09 18:14:00,78.7,75.2,29.99,SSW,209,0.0,1.0,89,0.00,,,0.03,Wunderground v.1.15,2013-08-09 22:14:00,
2013-08-09 18:17:00,78.6,75.1,29.99,SSW,209,0.0,1.0,89,0.00,,,0.03,Wunderground v.1.15,2013-08-09 22:17:00,
2013-08-09 18:18:00,78.6,75.1,29.99,SSW,209,0.0,0.0,89,0.00,,,0.03,Wunderground v.1.15,2013-08-09 22:18:00,
2013-08-09 18:23:00,78.4,75.2,29.99,SSW,209,0.0,0.0,90,0.00,,,0.03,Wunderground v.1.15,2013-08-09 22:23:00,
2013-08-09 18:24:00,78.4,75.2,29.99,SSW,209,0.0,0.0,90,0.00,,,0.03,Wunderground v.1.15,2013-08-09 22:24:00,
2013-08-09 18:29:00,78.2,75.0,29.99,SSW,209,0.0,0.0,90,0.00,,,0.03,Wunderground v.1.15,2013-08-09 22:29:00,
2013-08-09 18:30:00,78.2,75.0,29.99,SSW,209,0.0,0.0,90,0.00,,,0.03,Wunderground v.1.15,2013-08-09 22:30:00,
2013-08-09 18:35:00,78.0,74.8,29.98,SSW,209,0.0,0.0,90,0.00,,,0.03,Wunderground v.1.15,2013-08-09 22:35:00,
2013-08-09 18:41:00,77.9,74.7,29.98,SSW,209,0.0,0.0,90,0.00,,,0.03,Wunderground v.1.15,2013-08-09 22:41:00,
2013-08-09 18:43:00,77.8,74.3,29.98,SSW,213,0.0,0.0,89,0.00,,,0.03,Wunderground v.1.15,2013-08-09 22:43:00,
2013-08-09 18:46:00,77.7,74.5,29.98,SSW,213,0.0,0.0,90,0.00,,,0.03,Wunderground v.1.15,2013-08-09 22:46:00,
2013-08-09 18:48:00,77.6,74.4,29.98,SSW,213,0.0,0.0,90,0.00,,,0.03,Wunderground v.1.15,2013-08-09 22:48:00,
2013-08-09 18:49:00,77.7,74.9,29.98,SSW,213,0.0,0.0,91,0.00,,,0.03,Wunderground v.1.15,2013-08-09 22:49:00,
2013-08-09 18:52:00,77.6,74.4,29.98,SSW,213,0.0,0.0,90,0.00,,,0.03,Wunderground v.1.15,2013-08-09 22:52:00,
2013-08-09 18:53:00,77.6,74.4,29.98,SSW,213,0.0,0.0,90,0.00,,,0.03,Wunderground v.1.15,2013-08-09 22:53:00,
2013-08-09 18:57:00,77.6,74.8,29.98,SSW,213,0.0,0.0,91,0.00,,,0.03,Wunderground v.1.15,2013-08-09 22:57:00,
2013-08-09 19:00:00,77.6,74.8,29.98,SSW,213,0.0,0.0,91,0.00,,,0.03,Wunderground v.1.15,2013-08-09 23:00:00,
2013-08-09 19:04:00,77.5,74.7,29.98,SSW,213,0.0,0.0,91,0.00,,,0.03,Wunderground v.1.15,2013-08-09 23:04:00,
2013-08-09 19:06:00,77.5,74.7,29.99,SSW,213,0.0,0.0,91,0.00,,,0.03,Wunderground v.1.15,2013-08-09 23:06:00,
2013-08-09 19:07:00,77.5,74.7,29.99,SSW,213,0.0,0.0,91,0.00,,,0.03,Wunderground v.1.15,2013-08-09 23:07:00,
2013-08-09 19:10:00,77.5,74.7,29.99,SSW,213,0.0,0.0,91,0.00,,,0.03,Wunderground v.1.15,2013-08-09 23:10:00,
2013-08-09 19:11:00,77.4,74.9,29.99,SSW,213,0.0,0.0,92,0.00,,,0.03,Wunderground v.1.15,2013-08-09 23:11:00,
2013-08-09 19:12:00,77.4,74.9,29.99,SSW,213,0.0,0.0,92,0.00,,,0.03,Wunderground v.1.15,2013-08-09 23:12:00,
2013-08-09 19:16:00,77.3,74.8,29.99,SSW,213,0.0,0.0,92,0.00,,,0.03,Wunderground v.1.15,2013-08-09 23:16:00,
2013-08-09 19:17:00,77.3,74.5,29.99,SSW,213,0.0,0.0,91,0.00,,,0.03,Wunderground v.1.15,2013-08-09 23:17:00,
2013-08-09 19:20:00,77.3,74.5,29.99,SSW,213,0.0,0.0,91,0.00,,,0.03,Wunderground v.1.15,2013-08-09 23:20:00,
2013-08-09 19:21:00,77.2,74.4,29.99,SSW,213,0.0,0.0,91,0.00,,,0.03,Wunderground v.1.15,2013-08-09 23:21:00,
2013-08-09 19:23:00,77.2,74.4,29.99,SSW,213,0.0,0.0,91,0.00,,,0.03,Wunderground v.1.15,2013-08-09 23:23:00,
2013-08-09 19:26:00,77.2,74.4,30.00,SSW,213,0.0,0.0,91,0.00,,,0.03,Wunderground v.1.15,2013-08-09 23:26:00,
2013-08-09 19:28:00,77.2,74.4,29.99,SSW,213,0.0,0.0,91,0.00,,,0.03,Wunderground v.1.15,2013-08-09 23:28:00,
2013-08-09 19:33:00,77.3,74.8,30.00,SSW,213,0.0,0.0,92,0.00,,,0.03,Wunderground v.1.15,2013-08-09 23:33:00,
2013-08-09 19:34:00,77.3,74.8,30.00,SSW,213,0.0,0.0,92,0.00,,,0.03,Wunderground v.1.15,2013-08-09 23:34:00,
2013-08-09 19:35:00,77.3,74.8,30.00,SSW,213,0.0,0.0,92,0.00,,,0.03,Wunderground v.1.15,2013-08-09 23:35:00,
2013-08-09 19:36:00,77.3,74.8,30.00,SSW,213,0.0,0.0,92,0.00,,,0.03,Wunderground v.1.15,2013-08-09 23:36:00,
2013-08-09 19:38:00,77.3,74.8,30.00,SSW,213,0.0,0.0,92,0.00,,,0.03,Wunderground v.1.15,2013-08-09 23:38:00,
2013-08-09 19:40:00,77.3,74.8,30.00,SSW,213,0.0,0.0,92,0.00,,,0.03,Wunderground v.1.15,2013-08-09 23:40:00,
2013-08-09 19:45:00,77.3,74.8,30.00,SSW,213,0.0,0.0,92,0.00,,,0.03,Wunderground v.1.15,2013-08-09 23:45:00,
2013-08-09 19:48:00,77.2,74.7,30.00,SSW,213,0.0,0.0,92,0.00,,,0.03,Wunderground v.1.15,2013-08-09 23:48:00,
2013-08-09 19:49:00,77.2,74.7,30.00,SSW,213,0.0,0.0,92,0.00,,,0.03,Wunderground v.1.15,2013-08-09 23:49:00,
2013-08-09 19:51:00,77.2,74.7,30.00,SSW,213,0.0,0.0,92,0.00,,,0.03,Wunderground v.1.15,2013-08-09 23:51:00,
2013-08-09 19:53:00,77.1,74.6,30.00,SSW,213,0.0,0.0,92,0.00,,,0.03,Wunderground v.1.15,2013-08-09 23:53:00,
2013-08-09 19:54:00,77.1,74.9,30.00,SSW,213,0.0,0.0,93,0.00,,,0.03,Wunderground v.1.15,2013-08-09 23:54:00,
2013-08-09 19:56:00,77.1,74.9,30.00,SSW,213,0.0,0.0,93,0.00,,,0.03,Wunderground v.1.15,2013-08-09 23:56:00,
2013-08-09 19:59:00,77.1,74.9,30.00,SSW,213,0.0,0.0,93,0.00,,,0.03,Wunderground v.1.15,2013-08-09 23:59:00,
2013-08-09 20:01:00,77.1,74.9,30.00,SSW,213,0.0,0.0,93,0.00,,,0.03,Wunderground v.1.15,2013-08-10 00:01:00,
2013-08-09 20:05:00,77.0,74.8,30.00,SSW,213,0.0,0.0,93,0.00,,,0.03,Wunderground v.1.15,2013-08-10 00:05:00,
2013-08-09 20:06:00,77.0,74.8,30.00,SSW,213,0.0,0.0,93,0.00,,,0.03,Wunderground v.1.15,2013-08-10 00:06:00,
2013-08-09 20:08:00,76.9,74.7,30.01,SSW,213,0.0,0.0,93,0.00,,,0.03,Wunderground v.1.15,2013-08-10 00:08:00,
2013-08-09 20:09:00,76.9,74.7,30.01,SSW,213,0.0,0.0,93,0.00,,,0.03,Wunderground v.1.15,2013-08-10 00:09:00,
2013-08-09 20:10:00,76.9,74.7,30.01,SSW,213,0.0,0.0,93,0.00,,,0.03,Wunderground v.1.15,2013-08-10 00:10:00,
2013-08-09 20:12:00,76.8,74.6,30.01,SSW,213,0.0,0.0,93,0.00,,,0.03,Wunderground v.1.15,2013-08-10 00:12:00,
2013-08-09 20:16:00,76.8,74.9,30.01,SSW,213,0.0,0.0,94,0.00,,,0.03,Wunderground v.1.15,2013-08-10 00:16:00,
2013-08-09 20:17:00,76.7,74.8,30.01,SSW,213,0.0,0.0,94,0.00,,,0.03,Wunderground v.1.15,2013-08-10 00:17:00,
2013-08-09 20:18:00,76.7,74.8,30.01,SSW,213,0.0,0.0,94,0.00,,,0.03,Wunderground v.1.15,2013-08-10 00:18:00,
2013-08-09 20:20:00,76.7,74.8,30.01,SSW,213,0.0,0.0,94,0.00,,,0.03,Wunderground v.1.15,2013-08-10 00:20:00,
2013-08-09 20:21:00,76.7,74.8,30.01,SSW,213,0.0,0.0,94,0.00,,,0.03,Wunderground v.1.15,2013-08-10 00:21:00,
2013-08-09 20:23:00,76.6,74.7,30.01,SSW,213,0.0,0.0,94,0.00,,,0.03,Wunderground v.1.15,2013-08-10 00:23:00,
2013-08-09 20:26:00,76.6,74.7,30.01,SSW,213,0.0,0.0,94,0.00,,,0.03,Wunderground v.1.15,2013-08-10 00:26:00,
2013-08-09 20:31:00,76.5,74.6,30.01,SSW,213,0.0,0.0,94,0.00,,,0.03,Wunderground v.1.15,2013-08-10 00:31:00,
2013-08-09 20:32:00,76.5,74.6,30.01,SSW,213,0.0,0.0,94,0.00,,,0.03,Wunderground v.1.15,2013-08-10 00:32:00,
2013-08-09 20:35:00,76.5,74.6,30.01,SSW,213,0.0,0.0,94,0.00,,,0.04,Wunderground v.1.15,2013-08-10 00:35:00,
2013-08-09 20:36:00,76.4,74.5,30.01,SSW,213,0.0,0.0,94,0.00,,,0.04,Wunderground v.1.15,2013-08-10 00:36:00,
2013-08-09 20:38:00,76.4,74.5,30.01,SSW,213,0.0,0.0,94,0.00,,,0.04,Wunderground v.1.15,2013-08-10 00:38:00,
2013-08-09 20:40:00,76.4,74.5,30.01,SSW,213,0.0,0.0,94,0.00,,,0.04,Wunderground v.1.15,2013-08-10 00:40:00,
2013-08-09 20:43:00,76.3,74.4,30.01,SSW,213,0.0,0.0,94,0.00,,,0.04,Wunderground v.1.15,2013-08-10 00:43:00,
2013-08-09 20:45:00,76.3,74.4,30.01,SSW,213,0.0,0.0,94,0.00,,,0.04,Wunderground v.1.15,2013-08-10 00:45:00,
2013-08-09 20:47:00,76.3,74.4,30.01,SSW,213,0.0,0.0,94,0.00,,,0.04,Wunderground v.1.15,2013-08-10 00:47:00,
2013-08-09 20:50:00,76.3,74.4,30.00,SSW,213,0.0,0.0,94,0.00,,,0.04,Wunderground v.1.15,2013-08-10 00:50:00,
2013-08-09 20:52:00,76.2,74.3,30.00,SSW,213,0.0,0.0,94,0.00,,,0.04,Wunderground v.1.15,2013-08-10 00:52:00,
2013-08-09 20:53:00,76.2,74.3,30.00,SSW,213,0.0,0.0,94,0.00,,,0.04,Wunderground v.1.15,2013-08-10 00:53:00,
2013-08-09 20:56:00,76.2,74.3,30.00,SSW,213,0.0,0.0,94,0.00,,,0.04,Wunderground v.1.15,2013-08-10 00:56:00,
2013-08-09 20:57:00,76.2,74.3,30.00,SSW,213,0.0,0.0,94,0.00,,,0.04,Wunderground v.1.15,2013-08-10 00:57:00,
2013-08-09 20:58:00,76.2,74.3,30.00,SSW,213,0.0,0.0,94,0.00,,,0.04,Wunderground v.1.15,2013-08-10 00:58:00,
2013-08-09 21:02:00,76.2,74.3,30.00,SSW,213,0.0,0.0,94,0.00,,,0.04,Wunderground v.1.15,2013-08-10 01:02:00,
2013-08-09 21:05:00,76.2,74.3,30.00,SSW,213,0.0,0.0,94,0.00,,,0.04,Wunderground v.1.15,2013-08-10 01:05:00,
2013-08-09 21:07:00,76.1,74.2,30.00,SSW,213,0.0,0.0,94,0.00,,,0.04,Wunderground v.1.15,2013-08-10 01:07:00,
2013-08-09 21:09:00,76.1,74.2,30.00,SSW,213,0.0,0.0,94,0.00,,,0.04,Wunderground v.1.15,2013-08-10 01:09:00,
2013-08-09 21:10:00,76.1,74.2,30.00,SSW,213,0.0,0.0,94,0.00,,,0.04,Wunderground v.1.15,2013-08-10 01:10:00,
2013-08-09 21:15:00,76.0,74.5,30.00,SSW,213,0.0,0.0,95,0.00,,,0.04,Wunderground v.1.15,2013-08-10 01:15:00,
2013-08-09 21:16:00,76.0,74.5,30.00,SSW,213,0.0,0.0,95,0.00,,,0.04,Wunderground v.1.15,2013-08-10 01:16:00,
2013-08-09 21:17:00,76.0,74.5,30.00,SSW,213,0.0,0.0,95,0.00,,,0.04,Wunderground v.1.15,2013-08-10 01:17:00,
2013-08-09 21:18:00,76.0,74.5,30.00,SSW,213,0.0,0.0,95,0.00,,,0.04,Wunderground v.1.15,2013-08-10 01:18:00,
2013-08-09 21:20:00,75.9,74.4,30.00,SSW,213,0.0,0.0,95,0.00,,,0.04,Wunderground v.1.15,2013-08-10 01:20:00,
2013-08-09 21:22:00,75.9,74.4,30.00,SSW,213,0.0,0.0,95,0.00,,,0.04,Wunderground v.1.15,2013-08-10 01:22:00,
2013-08-09 21:25:00,75.8,74.3,30.00,SSW,213,0.0,0.0,95,0.00,,,0.04,Wunderground v.1.15,2013-08-10 01:25:00,
2013-08-09 21:28:00,75.8,74.3,30.00,SW,215,0.0,0.0,95,0.00,,,0.04,Wunderground v.1.15,2013-08-10 01:28:00,
2013-08-09 21:30:00,75.7,74.2,30.00,SW,215,0.0,0.0,95,0.00,,,0.04,Wunderground v.1.15,2013-08-10 01:30:00,
2013-08-09 21:31:00,75.7,74.2,30.00,SW,215,0.0,0.0,95,0.00,,,0.04,Wunderground v.1.15,2013-08-10 01:31:00,
2013-08-09 21:34:00,75.7,74.2,30.00,SW,215,0.0,0.0,95,0.00,,,0.04,Wunderground v.1.15,2013-08-10 01:34:00,
2013-08-09 21:35:00,75.6,74.1,30.01,SW,215,0.0,0.0,95,0.00,,,0.04,Wunderground v.1.15,2013-08-10 01:35:00,
2013-08-09 21:37:00,75.7,74.2,30.01,SW,215,0.0,0.0,95,0.00,,,0.04,Wunderground v.1.15,2013-08-10 01:37:00,
2013-08-09 21:40:00,75.7,74.2,30.01,SW,215,0.0,0.0,95,0.00,,,0.04,Wunderground v.1.15,2013-08-10 01:40:00,
2013-08-09 21:42:00,75.7,74.2,30.01,SW,215,0.0,0.0,95,0.00,,,0.04,Wunderground v.1.15,2013-08-10 01:42:00,
2013-08-09 21:44:00,75.7,74.2,30.01,SW,215,0.0,0.0,95,0.00,,,0.04,Wunderground v.1.15,2013-08-10 01:44:00,
2013-08-09 21:47:00,75.7,74.2,30.01,SW,215,0.0,0.0,95,0.00,,,0.04,Wunderground v.1.15,2013-08-10 01:47:00,
2013-08-09 21:48:00,75.7,74.2,30.01,SW,215,0.0,0.0,95,0.00,,,0.04,Wunderground v.1.15,2013-08-10 01:48:00,
2013-08-09 21:50:00,75.7,74.2,30.01,SW,215,0.0,0.0,95,0.00,,,0.04,Wunderground v.1.15,2013-08-10 01:50:00,
2013-08-09 21:51:00,75.7,74.2,30.01,SW,215,0.0,0.0,95,0.00,,,0.04,Wunderground v.1.15,2013-08-10 01:51:00,
2013-08-09 21:53:00,75.7,74.2,30.01,SW,215,0.0,0.0,95,0.00,,,0.04,Wunderground v.1.15,2013-08-10 01:53:00,
2013-08-09 21:55:00,75.7,74.2,30.01,SW,215,0.0,0.0,95,0.00,,,0.04,Wunderground v.1.15,2013-08-10 01:55:00,
2013-08-09 21:56:00,75.7,74.2,30.01,SW,215,0.0,0.0,95,0.00,,,0.04,Wunderground v.1.15,2013-08-10 01:56:00,
2013-08-09 21:58:00,75.7,74.2,30.01,SW,215,0.0,0.0,95,0.00,,,0.04,Wunderground v.1.15,2013-08-10 01:58:00,
2013-08-09 22:03:00,75.6,74.1,30.02,SW,215,0.0,0.0,95,0.00,,,0.04,Wunderground v.1.15,2013-08-10 02:03:00,
2013-08-09 22:04:00,75.6,74.1,30.02,SW,215,0.0,0.0,95,0.00,,,0.04,Wunderground v.1.15,2013-08-10 02:04:00,
2013-08-09 22:05:00,75.5,74.0,30.02,SW,215,0.0,0.0,95,0.00,,,0.04,Wunderground v.1.15,2013-08-10 02:05:00,
2013-08-09 22:07:00,75.5,74.0,30.02,SW,215,0.0,0.0,95,0.00,,,0.04,Wunderground v.1.15,2013-08-10 02:07:00,
2013-08-09 22:09:00,75.5,74.0,30.02,SW,215,0.0,0.0,95,0.00,,,0.04,Wunderground v.1.15,2013-08-10 02:09:00,
2013-08-09 22:12:00,75.4,73.9,30.02,SW,215,0.0,0.0,95,0.00,,,0.04,Wunderground v.1.15,2013-08-10 02:12:00,
2013-08-09 22:13:00,75.3,73.8,30.02,SW,215,0.0,0.0,95,0.00,,,0.04,Wunderground v.1.15,2013-08-10 02:13:00,
2013-08-09 22:14:00,75.3,73.8,30.02,SW,215,0.0,0.0,95,0.00,,,0.04,Wunderground v.1.15,2013-08-10 02:14:00,
2013-08-09 22:17:00,75.2,73.7,30.03,SW,215,0.0,0.0,95,0.00,,,0.04,Wunderground v.1.15,2013-08-10 02:17:00,
2013-08-09 22:19:00,75.2,73.7,30.03,SW,215,0.0,0.0,95,0.00,,,0.04,Wunderground v.1.15,2013-08-10 02:19:00,
2013-08-09 22:20:00,75.2,73.7,30.03,SW,215,0.0,0.0,95,0.00,,,0.04,Wunderground v.1.15,2013-08-10 02:20:00,
2013-08-09 22:21:00,75.2,73.7,30.03,SW,215,0.0,0.0,95,0.00,,,0.04,Wunderground v.1.15,2013-08-10 02:21:00,
2013-08-09 22:26:00,75.1,73.6,30.03,SW,215,0.0,0.0,95,0.00,,,0.04,Wunderground v.1.15,2013-08-10 02:26:00,
2013-08-09 22:28:00,75.1,73.6,30.03,SW,215,0.0,0.0,95,0.00,,,0.04,Wunderground v.1.15,2013-08-10 02:28:00,
2013-08-09 22:31:00,75.1,73.9,30.03,SW,215,0.0,0.0,96,0.00,,,0.04,Wunderground v.1.15,2013-08-10 02:31:00,
2013-08-09 22:33:00,75.1,73.9,30.03,SW,215,0.0,0.0,96,0.00,,,0.04,Wunderground v.1.15,2013-08-10 02:33:00,
2013-08-09 22:34:00,75.1,73.9,30.03,SW,215,0.0,0.0,96,0.00,,,0.04,Wunderground v.1.15,2013-08-10 02:34:00,
2013-08-09 22:35:00,75.1,73.9,30.03,SW,215,0.0,0.0,96,0.00,,,0.04,Wunderground v.1.15,2013-08-10 02:35:00,
2013-08-09 22:36:00,75.0,73.8,30.03,SW,215,0.0,0.0,96,0.00,,,0.04,Wunderground v.1.15,2013-08-10 02:36:00,
2013-08-09 22:39:00,75.0,73.8,30.03,SW,215,0.0,0.0,96,0.00,,,0.04,Wunderground v.1.15,2013-08-10 02:39:00,
2013-08-09 22:42:00,75.0,73.8,30.03,SW,215,0.0,0.0,96,0.00,,,0.04,Wunderground v.1.15,2013-08-10 02:42:00,
2013-08-09 22:44:00,75.0,73.8,30.03,SW,215,0.0,0.0,96,0.00,,,0.04,Wunderground v.1.15,2013-08-10 02:44:00,
2013-08-09 22:47:00,75.1,73.9,30.04,SW,215,0.0,0.0,96,0.00,,,0.04,Wunderground v.1.15,2013-08-10 02:47:00,
2013-08-09 22:48:00,75.1,73.9,30.04,SW,215,0.0,0.0,96,0.00,,,0.04,Wunderground v.1.15,2013-08-10 02:48:00,
2013-08-09 22:50:00,75.1,73.9,30.04,SSW,207,0.0,0.0,96,0.00,,,0.04,Wunderground v.1.15,2013-08-10 02:50:00,
2013-08-09 22:52:00,75.2,74.0,30.04,SSW,207,0.0,0.0,96,0.00,,,0.04,Wunderground v.1.15,2013-08-10 02:52:00,
2013-08-09 22:55:00,75.2,74.0,30.04,SSW,207,0.0,0.0,96,0.00,,,0.04,Wunderground v.1.15,2013-08-10 02:55:00,
2013-08-09 22:58:00,75.2,74.0,30.04,SSW,207,0.0,0.0,96,0.00,,,0.04,Wunderground v.1.15,2013-08-10 02:58:00,
2013-08-09 23:01:00,75.2,74.0,30.04,SSW,207,0.0,0.0,96,0.00,,,0.04,Wunderground v.1.15,2013-08-10 03:01:00,
2013-08-09 23:06:00,75.2,74.0,30.04,SSW,207,0.0,0.0,96,0.00,,,0.04,Wunderground v.1.15,2013-08-10 03:06:00,
2013-08-09 23:07:00,75.2,74.0,30.04,SSW,207,0.0,0.0,96,0.00,,,0.04,Wunderground v.1.15,2013-08-10 03:07:00,
2013-08-09 23:09:00,75.2,74.0,30.04,SSW,207,0.0,0.0,96,0.00,,,0.04,Wunderground v.1.15,2013-08-10 03:09:00,
2013-08-09 23:10:00,75.2,74.0,30.04,SSW,207,0.0,0.0,96,0.00,,,0.04,Wunderground v.1.15,2013-08-10 03:10:00,
2013-08-09 23:12:00,75.2,74.0,30.04,SSW,207,0.0,0.0,96,0.00,,,0.04,Wunderground v.1.15,2013-08-10 03:12:00,
2013-08-09 23:13:00,75.2,74.0,30.04,SSW,207,0.0,0.0,96,0.00,,,0.04,Wunderground v.1.15,2013-08-10 03:13:00,
2013-08-09 23:16:00,75.2,74.0,30.04,SSW,207,0.0,0.0,96,0.00,,,0.04,Wunderground v.1.15,2013-08-10 03:16:00,
2013-08-09 23:17:00,75.2,74.0,30.04,SSW,207,0.0,0.0,96,0.00,,,0.04,Wunderground v.1.15,2013-08-10 03:17:00,
2013-08-09 23:19:00,75.2,74.0,30.05,SSW,207,0.0,0.0,96,0.00,,,0.04,Wunderground v.1.15,2013-08-10 03:19:00,
2013-08-09 23:24:00,75.1,73.9,30.04,SSW,207,0.0,0.0,96,0.00,,,0.04,Wunderground v.1.15,2013-08-10 03:24:00,
2013-08-09 23:25:00,75.1,73.9,30.04,SSW,207,0.0,0.0,96,0.00,,,0.04,Wunderground v.1.15,2013-08-10 03:25:00,
2013-08-09 23:27:00,75.1,73.9,30.04,SSW,207,0.0,0.0,96,0.00,,,0.04,Wunderground v.1.15,2013-08-10 03:27:00,
2013-08-09 23:30:00,75.0,73.8,30.04,SSW,207,0.0,0.0,96,0.00,,,0.04,Wunderground v.1.15,2013-08-10 03:30:00,
2013-08-09 23:32:00,75.0,73.8,30.05,SSW,207,0.0,0.0,96,0.00,,,0.04,Wunderground v.1.15,2013-08-10 03:32:00,
2013-08-09 23:37:00,74.9,73.7,30.05,SSW,207,0.0,0.0,96,0.00,,,0.04,Wunderground v.1.15,2013-08-10 03:37:00,
2013-08-09 23:39:00,74.9,73.7,30.05,SSW,207,0.0,0.0,96,0.00,,,0.04,Wunderground v.1.15,2013-08-10 03:39:00,
2013-08-09 23:40:00,74.9,73.7,30.05,SSW,207,0.0,0.0,96,0.00,,,0.04,Wunderground v.1.15,2013-08-10 03:40:00,
2013-08-09 23:42:00,74.9,73.7,30.05,SSW,207,0.0,0.0,96,0.00,,,0.04,Wunderground v.1.15,2013-08-10 03:42:00,
2013-08-09 23:45:00,74.9,73.7,30.05,SSW,207,0.0,0.0,96,0.00,,,0.04,Wunderground v.1.15,2013-08-10 03:45:00,
2013-08-09 23:47:00,74.9,73.7,30.05,SSW,207,0.0,0.0,96,0.00,,,0.04,Wunderground v.1.15,2013-08-10 03:47:00,
2013-08-09 23:50:00,74.9,73.7,30.05,SSW,207,0.0,0.0,96,0.00,,,0.04,Wunderground v.1.15,2013-08-10 03:50:00,
2013-08-09 23:52:00,74.9,73.7,30.05,SSW,207,0.0,0.0,96,0.00,,,0.04,Wunderground v.1.15,2013-08-10 03:52:00,
2013-08-09 23:53:00,74.9,73.7,30.05,SSW,207,0.0,0.0,96,0.00,,,0.04,Wunderground v.1.15,2013-08-10 03:53:00,
2013-08-09 23:56:00,74.9,73.7,30.05,SSW,207,0.0,0.0,96,0.00,,,0.04,Wunderground v.1.15,2013-08-10 03:56:00,
2013-08-09 23:59:00,74.9,73.7,30.05,SSW,207,0.0,0.0,96,0.00,,,0.04,Wunderground v.1.15,2013-08-10 03:59:00,